GFSFLT1_sfc_thetae_000.txt.gz
Theta_e
338 333 332 331 330 330 330 332 331 331 331 331 332 332 327 325 314 320 324 325 331 332 331 331 332 332 332 329 325 325 325 325 328
339 335 332 331 332 331 331 330 331 332 332 331 331 332 329 315 312 317 320 321 331 332 331 330 330 329 328 329 326 325 325 325 326
337 335 333 332 332 332 332 332 331 330 331 332 331 332 331 319 311 313 318 323 332 333 332 330 330 329 328 328 327 326 325 325 325
336 336 335 334 333 333 334 334 333 331 331 330 331 333 333 316 312 313 316 325 333 334 332 332 331 330 329 327 328 327 326 325 324
337 338 337 335 334 333 334 334 334 332 330 330 330 332 332 321 316 313 312 327 332 334 333 333 331 331 330 329 327 328 327 327 326
328 332 335 335 334 334 333 334 334 333 332 331 331 331 322 319 317 314 320 325 332 333 334 333 333 331 331 330 329 328 328 328 327
326 327 332 335 335 335 334 333 334 332 319 316 322 318 319 318 316 316 325 327 329 331 333 333 333 332 331 331 331 330 328 328 328
321 320 321 322 326 324 326 324 322 319 316 314 313 313 312 313 316 319 326 329 330 330 331 333 336 334 333 331 330 330 329 329 329
318 318 318 318 320 320 320 320 319 317 316 313 311 311 310 310 311 314 321 325 328 329 329 332 335 338 336 334 331 333 333 331 331
318 318 317 317 318 318 319 319 319 318 316 315 312 312 311 309 310 311 316 320 323 327 328 329 332 334 339 338 337 335 334 334 333
319 318 318 317 318 319 319 319 319 318 316 316 314 313 312 311 310 310 310 318 322 325 328 330 329 331 334 340 339 338 336 336 335
321 319 319 319 318 318 318 317 317 316 316 315 315 315 313 312 310 309 310 312 319 322 327 329 330 331 331 334 339 338 337 336 336
319 320 321 321 316 316 316 316 314 314 314 314 314 314 314 313 311 311 310 309 309 314 320 325 328 332 333 332 336 338 337 336 335
319 320 320 319 316 315 315 315 312 315 315 312 312 313 311 312 313 312 311 311 311 310 313 319 322 326 330 331 333 336 336 335 335
317 318 318 318 316 316 315 313 317 316 315 316 317 317 316 313 312 314 314 314 313 311 311 312 314 319 324 328 332 335 335 334 334
317 316 317 317 316 318 318 317 315 316 315 313 314 316 316 316 316 316 315 315 315 313 312 312 312 313 321 323 326 330 333 335 334
318 318 318 318 318 318 317 317 318 319 319 314 315 311 314 315 316 316 315 315 316 316 315 314 312 312 312 314 320 324 327 330 332
307 308 309 311 314 315 317 317 318 317 319 320 315 311 310 315 317 313 314 315 315 315 315 315 314 313 312 314 315 319 322 325 329
305 305 304 304 306 305 307 309 313 314 313 317 320 320 317 311 310 317 315 313 314 315 315 315 315 315 314 315 315 316 318 323 327
303 303 302 302 303 303 303 304 305 306 308 308 311 312 312 313 310 306 310 315 317 319 316 316 316 316 316 315 315 318 321 324 328

GFSFLT1_sfc_thetae_003.txt.gz
Theta_e
336 336 333 331 331 331 331 331 333 333 333 334 333 333 331 328 327 328 331 333 332 333 333 333 335 335 334 334 330 327 327 326 328
339 337 334 332 332 332 331 332 332 331 333 333 333 332 334 328 325 324 330 332 335 334 332 332 332 334 333 332 331 328 327 326 327
341 339 335 333 332 332 332 333 333 332 332 331 332 332 332 326 326 323 324 330 334 333 334 333 332 331 331 330 330 329 327 327 327
337 337 336 335 334 334 332 336 336 335 333 332 332 333 333 330 329 325 321 324 333 334 334 334 334 333 332 331 329 330 329 327 327
337 338 337 337 336 335 333 334 336 335 334 332 333 333 333 329 330 329 327 324 328 334 334 335 334 334 333 332 331 329 330 329 328
334 334 335 336 336 334 334 334 334 334 334 332 331 330 325 326 327 328 329 330 330 330 333 334 335 335 334 332 332 331 330 330 330
332 330 332 334 335 336 335 334 335 334 331 330 326 326 325 323 324 325 328 331 333 331 330 332 333 334 337 334 333 332 332 330 330
332 332 332 333 330 331 331 331 330 330 330 329 327 326 324 323 322 323 326 329 331 332 331 330 332 333 336 338 335 333 333 332 331
330 330 331 330 331 330 330 329 329 328 328 328 327 325 324 323 322 322 322 325 327 328 330 331 330 331 334 337 339 338 336 336 335
330 330 330 330 330 329 328 328 327 327 326 326 326 325 324 323 322 322 321 322 326 328 327 328 330 330 331 336 339 340 339 337 336
329 329 329 328 328 328 328 327 326 326 326 325 325 324 324 323 323 322 322 321 323 326 329 329 330 331 332 332 337 338 340 339 338
329 329 328 328 328 327 327 326 325 324 325 324 324 324 324 323 323 322 321 321 320 322 328 330 332 331 332 333 335 336 337 339 338
328 327 327 328 327 326 325 324 323 323 322 320 321 323 323 323 323 323 322 321 320 321 322 326 330 332 333 333 334 336 335 335 337
326 326 326 327 325 325 324 323 322 321 322 322 323 323 321 322 321 321 321 321 320 321 321 320 323 327 332 333 334 337 336 335 335
325 324 324 324 324 323 324 323 322 320 320 319 319 323 324 325 322 321 322 322 321 321 320 321 320 320 323 328 332 336 337 336 335
314 314 314 315 316 317 318 320 320 320 323 318 317 320 323 324 325 325 323 322 322 322 322 321 321 321 322 324 326 329 333 336 336
308 308 308 309 310 309 311 311 311 313 316 316 315 312 316 322 323 324 323 324 323 322 323 322 322 321 322 321 322 325 328 331 333
306 306 306 306 307 306 308 308 308 306 309 312 310 307 305 309 314 319 323 323 322 323 323 321 322 322 322 322 320 319 322 326 331
302 303 304 304 304 304 305 306 306 306 304 308 309 310 310 304 303 309 314 316 319 319 321 322 322 322 322 321 319 319 321 324 328
299 300 301 300 301 303 303 303 304 305 304 304 305 306 308 308 305 301 305 310 311 314 317 320 321 322 324 324 323 321 322 325 329

GFSFLT1_sfc_thetae_006.txt.gz
Theta_e
337 336 333 331 331 331 331 331 331 332 333 334 335 333 333 330 331 327 329 332 333 332 333 334 333 335 337 335 335 333 330 329 328
338 338 335 331 331 332 332 332 332 332 332 332 332 333 334 330 331 328 326 329 332 336 335 334 334 333 334 335 334 333 330 329 328
342 339 335 333 332 332 331 334 335 334 334 333 332 332 333 327 329 329 327 329 331 335 336 333 334 333 333 333 332 332 332 329 328
339 338 335 335 335 334 334 334 335 336 335 334 333 334 333 329 328 328 329 330 328 332 334 335 335 336 335 333 333 332 332 331 329
335 337 336 336 337 336 334 334 334 334 335 334 333 333 332 327 328 328 328 330 331 331 331 334 335 335 335 334 334 333 331 332 331
333 334 334 335 335 335 335 334 334 336 335 335 334 331 328 326 325 325 329 329 333 333 332 332 334 335 335 338 335 334 333 332 332
333 332 332 334 335 335 335 335 334 334 332 331 331 330 329 327 326 325 330 328 331 331 332 332 332 333 334 336 337 335 334 334 332
333 333 333 333 331 333 333 333 332 331 331 331 331 331 330 329 328 328 330 328 331 331 330 331 332 332 332 334 335 338 338 337 336
333 332 333 333 333 333 333 333 333 332 332 331 330 330 330 330 329 329 328 327 330 332 332 330 330 332 332 333 335 338 339 338 337
334 334 334 334 334 334 333 333 333 333 332 332 332 331 331 331 331 330 327 327 327 330 333 333 331 330 331 332 335 337 338 339 339
335 335 335 335 335 335 334 333 333 332 332 332 332 332 332 332 331 331 331 329 327 328 331 334 334 334 332 331 335 335 337 339 340
335 334 334 335 335 334 334 333 333 332 331 331 331 331 331 330 331 331 331 331 327 327 329 332 334 334 335 335 335 336 336 336 338
334 334 334 334 333 332 331 330 328 328 328 327 328 329 329 330 329 330 330 330 329 329 328 328 330 333 335 336 336 338 336 336 335
333 331 328 327 327 327 326 326 326 324 324 323 324 325 325 327 329 329 329 329 329 329 327 326 326 327 329 334 336 338 338 336 336
320 318 316 318 317 316 316 316 317 317 318 316 318 321 322 324 325 327 327 329 329 329 329 328 327 324 324 327 330 333 336 336 335
313 313 312 312 312 311 311 311 310 311 312 310 311 312 316 319 318 323 321 322 325 327 329 330 328 327 327 327 327 328 331 333 335
309 310 309 310 309 309 309 309 308 308 309 306 307 303 308 311 312 313 313 315 317 322 326 326 326 327 328 326 326 327 328 330 332
306 306 306 306 306 305 306 305 305 303 305 306 304 301 299 305 308 309 310 312 313 314 316 317 319 321 323 324 323 323 325 327 330
302 302 302 302 302 302 302 302 302 302 300 302 304 304 303 300 299 305 306 308 308 309 312 312 313 315 317 320 320 321 323 327 329
298 298 299 299 299 299 299 299 300 301 299 299 300 301 302 302 299 296 298 302 303 304 307 309 312 312 315 319 319 318 319 322 324

GFSFLT1_sfc_thetae_009.txt.gz
Theta_e
338 337 335 332 331 332 331 331 331 331 331 333 333 334 334 333 330 330 327 327 332 332 333 333 334 334 335 337 336 336 334 332 330
340 338 336 333 331 331 331 332 334 334 333 333 332 332 335 328 327 328 330 327 330 333 334 335 335 335 334 334 336 335 335 333 330
340 340 337 335 333 333 332 333 334 336 336 336 334 333 334 328 325 327 330 333 328 331 333 334 335 335 335 334 334 334 333 334 332
339 339 335 335 335 336 334 334 334 334 335 336 335 335 334 329 326 326 328 334 332 330 331 333 335 335 336 337 334 334 333 333 333
335 336 336 335 336 335 335 335 334 334 335 335 337 335 334 328 327 327 327 335 332 333 331 332 333 335 336 337 337 335 334 334 333
334 334 336 334 335 335 336 336 335 336 335 336 335 334 330 328 327 325 331 333 331 333 333 333 333 334 335 338 339 339 336 335 334
332 331 333 335 335 336 336 336 336 335 332 332 334 331 330 329 329 328 333 331 330 332 332 332 333 333 333 335 337 338 338 337 337
332 332 333 334 331 333 334 334 334 332 332 332 331 331 331 331 330 331 335 333 332 332 333 333 332 332 334 334 334 338 339 340 340
332 332 334 334 334 333 334 333 333 333 333 332 331 331 331 332 332 332 332 335 333 334 334 335 334 333 332 334 334 336 338 339 339
335 334 335 335 335 334 334 334 333 333 333 333 332 332 332 332 333 333 330 333 335 333 334 335 336 336 335 333 335 337 337 338 338
336 335 335 335 335 333 332 332 331 331 331 330 331 331 331 331 332 332 333 332 334 335 335 335 336 338 338 337 338 336 337 337 337
335 335 334 333 333 332 331 330 329 328 328 326 327 328 328 328 329 329 331 332 330 333 336 336 335 335 337 339 339 339 337 336 337
335 332 330 328 328 327 325 323 322 322 321 321 322 323 323 323 324 326 328 330 330 331 334 335 334 334 334 335 337 339 338 337 336
325 320 318 319 318 316 316 315 314 313 314 314 315 315 318 320 320 322 325 327 329 329 329 329 330 332 332 333 334 334 336 337 336
316 315 314 313 314 313 312 311 312 312 312 309 310 313 313 314 316 320 316 315 314 315 318 324 327 327 331 332 333 333 332 332 334
311 312 311 311 310 310 309 308 307 307 308 306 307 307 311 309 311 310 310 312 314 313 316 319 318 323 327 329 330 330 331 331 331
308 307 307 306 307 306 305 305 303 304 304 301 301 298 302 305 305 307 308 307 311 309 312 312 311 313 314 316 321 327 329 329 328
303 303 302 302 304 303 302 302 301 299 302 302 298 295 293 298 303 303 305 303 303 306 305 307 307 308 308 310 312 318 321 322 325
299 300 300 299 300 299 300 299 300 300 298 299 299 299 298 294 293 299 300 301 299 300 302 301 302 304 308 310 311 316 316 316 318
298 298 298 298 298 298 297 298 298 299 297 296 296 296 298 297 292 289 292 296 297 299 299 301 302 304 306 309 309 312 311 313 314

GFSFLT1_sfc_thetae_012.txt.gz
Theta_e
339 337 336 334 332 331 331 330 331 332 331 331 331 331 332 334 324 322 325 323 329 333 333 334 334 334 334 336 337 337 336 334 333
341 338 336 335 333 331 330 330 332 334 335 334 334 333 334 327 321 321 321 323 330 331 334 335 335 335 335 335 335 336 336 335 335
341 340 338 335 334 333 333 333 334 334 336 337 336 337 335 328 321 320 321 328 334 332 331 334 335 336 335 336 335 334 335 335 335
340 341 338 336 336 336 336 335 334 334 335 335 337 337 335 327 323 323 320 331 336 335 334 332 333 335 336 335 338 337 335 335 334
339 339 339 337 336 336 335 335 336 335 335 336 338 337 335 327 324 323 322 333 334 334 334 333 333 334 335 337 339 339 338 336 335
332 333 336 335 334 335 336 336 337 338 336 336 336 334 328 324 323 321 329 336 333 333 334 334 335 334 334 334 338 340 339 338 338
328 329 333 335 336 337 336 337 338 336 331 329 332 329 327 325 324 322 334 337 334 333 335 335 334 335 334 334 334 335 339 340 341
325 326 327 326 330 328 331 332 332 329 329 326 325 325 325 324 324 327 335 340 337 336 337 337 335 335 335 334 335 336 338 340 340
325 325 327 327 327 326 327 327 328 329 329 328 327 327 326 325 326 327 332 338 340 338 339 339 338 336 337 337 336 337 338 338 338
328 328 328 330 331 330 329 329 329 329 329 328 327 327 327 327 328 329 329 334 339 341 339 339 338 338 337 338 339 339 338 338 338
329 329 331 330 330 330 329 328 327 326 325 323 321 321 321 320 321 323 324 330 335 339 339 339 339 339 339 337 338 339 339 339 338
330 330 328 328 327 324 320 318 318 316 316 315 317 318 317 318 318 319 319 323 327 333 338 339 337 337 337 337 336 337 338 337 338
324 319 313 314 313 311 309 308 308 307 306 307 307 308 309 310 313 313 315 316 315 319 326 333 335 335 336 336 335 335 336 336 336
312 310 308 308 309 307 307 305 305 304 305 305 304 305 306 306 309 308 305 306 308 309 316 320 323 326 329 329 332 332 333 334 334
307 307 306 306 306 304 302 301 301 301 301 301 303 301 302 304 302 301 302 304 306 306 307 306 311 317 320 320 321 323 325 328 332
303 303 302 302 301 300 299 298 297 297 298 297 296 297 299 299 299 300 302 302 303 301 302 304 302 304 314 315 314 315 317 319 323
300 298 298 297 298 297 296 295 295 296 296 293 293 290 293 295 297 299 299 298 299 299 300 298 298 300 300 302 312 314 316 318 321
296 296 295 295 295 294 294 293 293 293 294 294 291 288 287 291 294 295 295 294 296 295 296 296 297 298 298 303 304 309 314 315 317
295 295 294 293 294 292 292 294 292 293 291 293 294 291 290 288 287 291 292 292 293 293 294 295 296 297 298 303 306 310 306 309 311
294 293 292 292 292 291 291 291 290 292 291 290 290 289 289 289 287 285 287 290 291 293 294 294 295 295 295 293 299 304 303 306 308

GFSFLT1_sfc_thetae_015.txt.gz
Theta_e
342 339 337 335 334 331 330 330 331 332 332 333 332 331 331 335 322 320 321 323 330 330 335 334 335 334 335 335 337 338 338 337 335
341 340 337 336 335 333 330 330 331 333 335 337 336 335 335 327 322 320 320 320 332 334 333 335 335 336 336 336 336 336 337 337 335
342 340 337 336 334 333 334 334 334 333 335 336 337 338 337 329 323 322 319 325 333 336 335 333 334 335 336 337 336 337 336 336 336
339 343 339 336 335 336 336 337 335 335 334 335 337 338 337 329 325 325 321 327 333 335 337 336 335 334 334 336 337 337 338 337 336
341 342 341 337 337 337 336 335 336 336 336 336 338 337 336 329 326 325 323 332 335 335 335 335 335 335 334 334 335 337 337 337 339
331 334 335 339 336 335 336 336 337 339 338 338 337 335 329 326 325 324 328 334 336 337 339 339 335 336 336 335 335 335 336 338 338
329 329 334 336 337 337 337 338 340 337 331 328 331 327 328 326 325 324 331 335 338 339 341 339 338 335 336 336 336 336 335 335 339
323 322 324 324 327 327 329 328 330 330 330 329 328 326 327 326 326 328 334 339 339 341 343 341 340 340 338 337 338 338 337 337 338
322 322 323 324 325 327 328 328 329 328 329 328 327 326 325 326 326 327 331 336 337 338 342 340 340 340 339 339 340 341 339 339 339
326 326 327 329 328 329 328 327 327 323 322 320 317 318 318 318 319 319 325 330 333 335 335 338 341 340 339 338 338 339 339 337 339
327 328 327 326 325 320 316 311 311 309 310 308 310 312 312 311 312 316 317 326 328 326 326 331 334 335 335 336 336 337 338 338 338
326 315 313 314 311 307 307 306 306 306 306 305 306 305 304 305 306 308 309 310 315 320 321 322 323 326 327 331 332 334 334 334 334
312 308 305 307 306 305 304 303 302 302 302 301 300 300 303 303 302 304 300 301 304 311 315 314 319 319 320 322 324 324 325 329 327
306 304 303 304 303 301 300 299 298 297 297 297 298 297 297 299 302 298 298 300 303 302 308 312 311 310 313 315 317 317 317 317 318
303 301 299 300 300 297 296 295 295 295 295 298 297 295 296 297 295 294 298 300 299 299 298 299 298 307 308 310 312 313 314 314 316
297 297 296 297 296 294 295 294 294 294 294 293 292 294 295 293 293 295 296 296 297 295 296 295 295 296 304 306 308 310 310 313 314
296 294 294 294 294 292 292 291 292 293 293 290 289 287 289 291 293 293 294 293 293 294 294 294 294 294 295 298 302 305 309 313 313
294 293 292 292 292 291 290 290 290 290 291 291 288 285 284 287 290 290 291 291 291 291 292 293 294 294 294 296 298 301 303 307 310
293 292 291 291 291 289 289 291 289 289 288 290 292 288 287 284 283 288 289 290 291 290 291 292 293 293 293 295 296 299 301 304 307
292 291 290 289 290 288 288 288 287 288 287 287 288 286 286 285 283 282 284 288 289 290 290 291 291 291 291 291 294 298 300 303 305

GFSFLT1_sfc_thetae_018.txt.gz
Theta_e
338 339 337 335 333 331 330 330 331 332 333 334 334 334 333 334 323 320 320 322 329 334 332 336 335 335 335 335 336 338 340 339 338
342 342 337 336 334 332 330 330 331 333 334 336 336 336 337 329 322 320 319 319 332 334 336 333 336 335 335 336 336 336 337 337 337
342 340 337 336 334 333 334 334 335 335 334 334 336 337 337 331 324 323 321 325 331 334 335 336 334 334 335 336 336 337 336 337 336
341 341 339 337 335 336 336 337 335 335 336 336 335 338 337 330 326 326 323 328 334 334 335 336 336 336 335 334 335 335 337 336 337
341 343 342 338 337 337 337 335 335 336 337 337 339 338 336 329 327 326 325 333 336 337 336 336 336 336 336 336 336 335 335 335 336
330 336 336 339 339 337 336 337 338 339 338 338 338 336 329 325 325 325 329 335 338 338 338 340 339 337 339 339 337 337 336 336 335
327 328 334 338 339 338 338 339 340 337 331 329 332 329 328 327 326 326 331 336 340 340 343 342 341 341 340 340 337 338 338 338 337
324 322 324 324 325 324 327 326 326 329 330 328 327 325 324 323 324 327 333 334 335 334 334 340 340 339 339 338 338 339 338 338 339
320 320 322 323 326 324 327 327 323 318 317 316 314 316 316 317 319 320 325 327 329 330 331 334 337 340 339 338 338 338 338 338 338
325 325 325 326 325 320 313 312 310 307 307 306 307 307 305 305 308 309 320 320 319 322 325 327 329 330 332 332 334 335 335 335 335
324 317 316 312 311 310 307 304 303 302 303 303 303 301 301 302 302 305 305 314 316 315 320 321 323 327 326 327 326 326 327 327 328
311 310 310 308 305 303 302 300 300 300 300 298 299 299 298 299 299 300 298 300 310 313 315 315 318 316 318 320 320 321 321 320 320
307 306 303 302 300 300 299 297 297 296 296 294 295 295 296 297 298 296 295 298 301 304 308 310 309 310 311 314 316 316 315 315 316
302 300 300 299 297 296 296 294 295 293 293 295 296 292 293 296 295 291 293 297 296 297 302 303 302 305 308 310 312 312 313 313 312
298 296 297 297 295 294 293 292 292 293 292 296 294 291 293 292 290 290 294 295 294 293 294 292 294 302 305 306 308 310 309 309 310
295 294 294 295 293 291 291 291 291 291 291 290 290 291 292 289 290 291 289 292 291 292 291 292 293 293 301 303 305 306 306 308 307
294 292 292 292 291 290 289 289 289 290 290 287 287 285 287 288 290 289 290 288 290 291 292 291 292 291 292 295 301 301 303 305 307
292 291 291 290 290 288 288 288 288 287 289 288 286 282 281 285 287 288 287 289 288 289 290 291 291 291 291 293 294 298 300 302 305
292 291 290 289 289 287 288 289 287 286 285 287 290 287 285 281 281 286 288 286 287 287 287 289 289 291 291 293 295 297 298 301 304
290 289 288 288 288 287 286 286 285 286 285 285 285 284 284 284 282 280 281 285 287 288 288 287 288 289 289 289 291 296 298 301 303

GFSFLT1_sfc_thetae_021.txt.gz
Theta_e
338 338 337 335 332 331 330 330 330 331 333 334 335 335 334 335 322 320 320 321 328 332 334 334 336 336 336 336 335 337 339 340 339
340 341 337 336 333 332 330 330 331 332 333 334 335 335 338 330 324 322 320 319 331 333 335 336 334 337 337 335 335 335 335 336 337
342 340 337 336 334 334 333 334 335 335 335 335 334 337 337 332 325 323 322 326 334 334 334 336 337 336 335 334 335 335 336 337 337
342 340 338 337 336 336 336 336 336 335 336 337 337 338 337 330 326 327 325 330 336 337 335 336 337 338 337 336 336 335 335 335 337
340 342 341 339 338 337 337 337 336 337 338 338 339 338 337 329 326 326 325 334 338 339 339 339 339 337 339 340 338 337 337 336 335
328 336 337 340 339 338 338 338 339 339 338 337 337 335 328 328 324 324 330 335 338 340 341 340 340 340 341 340 340 338 338 338 338
326 328 334 337 338 338 336 337 336 331 328 328 330 325 324 324 323 324 330 333 334 335 334 336 336 338 339 339 339 339 339 339 339
321 321 321 323 324 322 325 326 326 321 319 316 313 314 313 313 316 318 325 327 329 329 330 332 335 337 338 338 338 338 338 338 339
319 319 320 322 327 324 319 314 312 308 306 306 306 306 305 305 308 310 319 320 323 325 327 328 329 331 332 333 334 333 333 333 334
322 325 319 314 312 311 309 307 303 302 302 302 300 299 299 299 302 302 313 316 315 319 323 322 326 325 324 325 325 326 326 326 326
315 312 311 309 308 307 302 300 299 297 297 297 297 296 294 297 298 296 297 311 312 313 316 319 317 317 317 318 320 320 320 320 320
310 309 307 305 302 299 297 296 296 295 295 293 295 294 293 296 292 293 295 299 305 307 312 311 311 311 313 315 315 316 316 316 317
307 305 301 298 297 296 294 294 294 292 292 291 293 292 293 295 290 291 293 296 296 299 305 304 305 307 309 311 312 313 312 312 312
302 299 297 295 294 293 293 292 292 290 291 292 294 290 291 293 291 289 291 293 292 292 298 300 300 303 305 307 309 310 310 309 309
296 295 294 294 293 291 290 290 290 291 289 293 292 289 291 289 287 288 290 291 290 290 290 289 292 299 301 304 306 307 307 307 307
293 293 293 292 291 289 289 289 289 289 289 288 288 289 290 288 287 289 287 288 288 289 289 290 290 291 299 300 301 303 304 305 306
293 292 291 290 289 288 287 287 287 288 289 286 285 283 285 287 289 287 288 286 287 289 289 288 289 289 289 293 299 300 302 304 305
291 290 290 289 288 287 286 286 286 285 286 287 284 280 280 283 285 285 286 287 286 286 287 289 289 289 289 291 293 297 298 301 304
291 290 289 288 288 286 286 287 285 285 284 286 288 285 284 280 279 284 285 285 286 284 285 287 287 288 288 291 295 296 297 300 303
289 288 287 287 287 285 285 284 284 284 283 283 284 283 283 282 280 279 280 284 284 285 286 285 286 287 287 288 290 295 297 299 301

GFSFLT1_sfc_thetae_024.txt.gz
Theta_e
338 336 336 335 332 331 330 330 330 330 332 333 334 334 334 336 322 321 321 322 327 330 333 335 335 336 336 336 336 335 337 339 340
340 340 337 335 333 331 330 330 331 332 333 334 335 336 338 330 325 323 322 321 333 333 333 335 336 335 337 339 334 334 335 335 335
342 340 338 336 334 333 333 334 335 336 336 336 336 337 337 331 325 324 323 327 336 337 335 335 336 337 336 335 335 335 336 336 338
342 340 338 337 336 335 335 336 337 336 337 337 338 339 337 330 326 326 325 330 337 339 339 338 337 338 338 339 338 337 337 337 336
338 342 341 339 337 337 337 338 337 338 338 338 339 337 336 326 325 324 324 334 339 340 340 340 340 340 340 342 341 339 339 338 338
327 335 338 339 338 338 338 338 339 337 333 334 333 331 324 323 324 322 329 333 336 337 337 336 337 338 340 340 340 340 340 339 340
325 326 331 334 334 333 333 334 332 328 323 318 318 314 312 313 315 316 327 329 331 331 331 332 335 336 338 338 338 338 339 339 339
320 320 320 320 324 322 326 317 312 310 307 307 305 305 305 303 307 313 320 324 327 327 328 329 330 333 333 335 334 333 333 334 334
318 318 321 322 323 312 311 309 305 302 302 301 299 299 299 299 302 303 318 317 320 324 324 324 327 325 326 326 326 327 327 327 326
321 320 313 311 310 309 305 301 299 297 297 296 296 293 294 297 296 294 313 313 315 317 320 321 320 318 318 319 321 321 321 321 321
313 310 309 307 305 301 298 296 294 293 293 293 294 291 294 293 291 293 296 308 309 314 314 315 314 314 316 317 316 316 317 317 317
310 307 304 302 299 295 294 294 292 292 292 291 293 291 292 291 289 291 293 296 302 307 309 309 309 310 311 313 313 314 314 314 314
306 303 300 296 294 293 292 293 291 290 289 288 291 290 291 290 288 290 291 293 291 297 303 303 304 305 307 309 311 311 311 311 311
302 299 295 293 292 291 291 290 291 288 288 289 291 288 289 289 289 288 289 290 289 290 296 298 299 301 303 306 308 309 309 309 309
297 293 292 292 291 289 289 288 288 289 288 290 289 288 290 287 286 288 288 288 287 289 289 287 290 298 300 302 304 305 306 306 307
293 292 291 290 289 287 288 287 287 287 288 286 287 287 288 288 287 287 286 287 287 288 288 288 288 289 297 298 300 302 304 305 306
292 290 289 289 288 287 286 286 285 285 286 284 284 281 283 286 287 286 287 285 286 287 287 286 287 288 287 292 298 298 301 303 304
290 289 288 288 288 286 286 285 285 284 285 286 282 279 278 281 284 285 285 284 285 284 286 286 287 287 286 291 291 296 298 301 303
289 289 288 287 287 285 286 286 284 284 282 284 286 283 283 279 278 282 284 283 285 283 282 285 286 286 287 290 293 295 296 300 303
288 287 287 286 286 285 284 283 283 283 282 282 282 281 282 280 279 278 279 283 284 284 283 283 284 285 286 286 289 294 297 299 301

GFSFLT1_sfc_thetae_027.txt.gz
Theta_e
337 336 336 334 332 331 331 331 331 332 333 334 335 335 335 335 335 333 332 332 330 333 332 334 335 337 337 336 337 336 336 337 340
339 339 337 335 333 332 331 333 334 334 335 335 334 335 337 334 334 334 333 333 335 336 335 334 336 337 336 337 339 335 335 336 336
341 341 338 336 334 333 333 335 336 336 336 336 337 338 337 334 334 334 334 333 336 338 338 337 336 337 339 337 336 337 336 337 337
343 342 339 337 335 335 335 337 338 337 338 339 339 339 337 336 336 333 334 332 338 340 340 341 340 339 339 340 341 340 339 338 338
339 341 341 338 337 337 338 338 339 339 338 337 335 334 331 333 332 332 331 334 337 339 339 338 337 339 340 341 341 340 339 340 340
332 336 338 338 337 337 337 336 335 332 329 326 324 324 324 325 323 325 329 331 333 334 333 334 336 337 338 339 339 339 339 339 340
329 328 330 330 332 331 333 328 320 317 316 316 315 314 314 315 317 320 324 326 329 330 331 330 331 334 336 336 336 336 336 337 336
329 329 330 331 328 331 317 313 311 312 312 311 309 309 309 312 310 317 321 322 323 326 326 328 328 328 328 329 329 329 329 329 328
328 329 330 324 316 312 311 308 308 307 306 306 303 302 306 306 306 314 315 319 322 321 325 324 322 321 321 322 324 323 323 323 323
330 319 313 312 310 308 307 306 303 302 302 303 301 301 305 302 303 307 312 312 315 319 319 318 317 318 319 320 318 318 319 319 320
315 312 309 307 305 303 304 301 300 299 299 300 301 300 303 298 301 301 305 309 312 312 313 313 313 314 315 316 315 315 316 316 316
311 308 305 303 300 301 302 300 299 298 297 297 300 298 302 297 298 300 301 299 303 307 308 308 308 308 310 312 312 313 313 313 313
308 304 301 299 301 300 299 300 299 297 296 297 298 298 300 296 297 297 299 298 297 300 302 302 303 304 306 309 310 310 310 310 311
303 301 299 299 298 298 298 297 298 295 296 296 297 297 298 296 296 296 297 296 296 297 296 297 297 300 302 305 307 308 307 308 309
299 299 298 297 297 296 296 295 296 295 294 294 294 297 299 296 296 296 295 296 294 295 295 294 294 296 299 301 303 305 306 306 307
297 297 296 296 295 294 294 295 293 293 294 293 294 295 295 297 297 294 295 294 293 294 294 293 293 293 296 297 299 301 303 304 305
296 296 295 295 294 293 293 293 293 292 292 290 290 289 292 294 293 294 293 293 293 293 292 292 291 292 292 293 297 298 300 303 305
295 295 294 294 294 293 292 292 292 290 291 291 289 287 286 287 292 292 292 291 291 291 291 290 290 291 291 293 293 295 297 301 303
294 294 294 293 293 292 291 291 291 291 289 291 290 290 289 285 284 289 290 290 288 289 289 289 289 290 290 292 293 294 296 300 303
293 293 292 292 291 291 290 290 290 290 289 289 288 288 288 287 284 282 285 287 289 289 288 288 289 289 290 290 291 294 296 299 301

GFSFLT1_sfc_thetae_030.txt.gz
Theta_e
337 337 336 333 333 332 333 332 333 333 333 334 335 337 336 336 335 335 334 334 334 336 334 333 335 336 339 338 337 337 337 337 338
339 338 337 334 333 332 333 334 334 335 335 336 335 335 335 335 336 336 336 336 335 338 337 337 335 336 337 337 338 339 337 336 336
341 340 338 336 334 334 334 336 337 336 336 337 338 337 338 336 337 337 337 335 337 340 340 339 339 338 338 339 339 338 337 337 337
343 341 339 337 336 336 336 337 338 338 338 338 338 337 336 337 336 336 336 335 339 341 340 341 341 341 341 340 340 341 341 340 340
343 341 340 338 337 337 338 338 338 337 336 333 331 330 332 334 334 334 331 332 336 337 336 336 337 338 339 339 339 339 341 341 340
336 337 339 337 337 337 335 335 333 329 325 322 319 324 328 328 327 329 326 330 332 332 333 332 333 336 337 337 337 338 338 338 338
332 333 332 331 331 332 329 322 318 322 326 323 322 322 321 322 322 324 325 327 327 329 327 333 331 330 331 331 331 332 332 331 330
333 334 333 336 329 334 322 318 321 320 319 319 317 314 315 318 316 319 320 323 327 325 329 327 324 324 324 325 326 325 325 325 325
332 333 336 332 327 319 315 318 316 314 311 311 309 308 310 311 312 315 315 317 320 323 324 321 321 321 321 322 321 321 321 322 322
333 332 326 319 314 313 318 315 312 309 307 307 306 306 309 307 310 311 312 314 317 317 317 317 316 316 317 318 317 317 318 319 319
327 316 313 310 311 310 313 310 308 306 305 305 305 304 307 306 307 308 308 310 311 312 312 311 311 312 313 313 314 314 315 315 316
318 313 310 306 305 308 309 306 306 306 304 303 304 303 305 305 304 306 305 304 305 307 307 306 306 307 309 310 311 312 312 312 312
312 309 306 307 306 307 306 306 305 303 303 302 304 303 302 303 303 304 303 302 302 301 301 301 302 303 305 307 309 309 310 310 310
310 307 306 306 305 305 303 303 303 301 301 300 301 302 302 303 300 301 301 301 301 300 297 297 297 299 302 304 306 307 307 307 308
305 306 303 304 304 302 302 300 300 299 299 298 299 303 304 302 301 301 299 300 299 299 299 299 298 298 298 300 302 304 305 306 306
301 304 303 303 302 300 300 299 299 298 298 298 300 301 300 300 301 301 299 298 297 298 297 297 296 296 298 298 299 301 303 304 305
301 303 302 301 300 299 298 299 298 297 297 295 296 295 297 298 299 299 298 297 297 296 296 295 295 295 295 296 297 297 300 302 304
301 300 301 301 300 298 298 298 297 296 296 295 293 293 292 292 297 296 295 296 295 295 295 294 294 294 294 295 295 295 297 300 303
298 300 300 300 299 298 296 296 296 296 294 296 293 294 292 289 289 294 294 294 292 293 294 293 293 293 293 294 294 294 296 299 302
298 299 299 298 298 297 296 295 295 295 294 294 293 292 292 291 288 287 290 292 293 293 292 292 292 293 293 293 293 294 296 299 301

GFSFLT1_sfc_thetae_033.txt.gz
Theta_e
338 337 334 334 334 334 334 334 335 335 335 335 335 335 336 337 335 334 335 335 335 337 336 335 334 336 337 339 339 338 338 337 337
338 338 336 334 334 334 335 336 336 336 336 336 336 336 336 334 335 335 335 337 337 339 340 338 338 337 337 338 338 338 339 339 336
340 340 337 335 335 335 335 337 338 337 337 338 338 338 338 335 335 334 334 337 338 341 341 341 341 341 340 339 340 340 339 339 338
343 341 339 337 336 336 337 338 339 339 339 338 336 335 336 335 333 333 333 336 338 339 338 339 338 339 340 340 340 340 342 342 341
344 342 340 338 338 338 338 338 337 336 334 331 329 330 334 333 331 331 327 334 335 335 336 335 336 339 338 339 339 339 340 340 339
338 338 340 338 337 336 335 333 332 328 326 321 321 324 326 326 326 326 328 330 331 333 331 335 335 334 333 333 334 334 334 334 333
335 335 336 335 334 333 327 322 321 323 326 324 323 323 322 322 321 320 323 325 326 328 330 330 328 327 327 328 329 328 328 329 328
331 333 331 333 330 331 326 323 323 322 320 320 319 314 314 315 315 317 320 323 323 326 328 324 324 324 324 325 324 323 324 325 325
330 331 333 334 331 325 322 322 319 317 314 312 310 309 311 311 311 312 315 317 322 324 321 320 320 320 320 321 320 319 320 321 321
331 332 331 326 323 321 321 319 316 312 309 308 308 306 308 308 308 311 316 316 317 317 317 315 315 315 315 315 316 316 316 317 317
333 328 323 318 318 317 317 313 309 308 306 306 306 305 306 305 306 307 308 311 312 312 311 310 310 310 311 312 312 313 313 314 315
329 323 317 314 313 312 312 308 307 307 306 305 304 305 304 305 304 305 307 305 307 306 305 305 306 307 308 310 310 311 311 312 313
325 318 313 312 311 311 308 307 306 305 304 303 304 304 304 304 303 303 304 304 302 303 301 300 302 302 305 308 309 309 309 310 310
320 314 313 311 310 308 306 304 304 303 303 302 303 304 303 304 302 302 302 302 301 301 300 297 300 300 302 304 306 307 307 308 308
317 313 310 309 307 305 305 303 302 301 300 299 301 304 304 305 303 301 300 300 300 300 301 300 300 301 300 302 303 303 306 306 306
311 308 306 308 306 305 304 302 301 300 300 301 302 303 301 300 302 303 301 301 300 299 299 298 297 297 299 300 299 302 302 304 305
306 305 304 306 304 303 302 302 300 299 299 296 299 297 298 299 300 301 298 298 299 298 297 296 296 296 296 297 298 298 300 303 304
306 305 305 305 305 302 302 301 300 298 298 297 294 294 294 293 299 298 298 297 297 296 296 296 295 295 294 295 296 296 298 300 303
303 303 302 303 303 301 300 299 299 298 296 297 294 294 293 290 289 296 296 297 294 295 295 295 294 294 294 295 296 296 296 299 302
301 302 302 302 302 299 298 298 297 296 295 294 294 293 293 292 290 287 291 293 294 294 294 294 294 293 294 293 294 295 296 299 301

GFSFLT1_sfc_thetae_036.txt.gz
Theta_e
339 335 335 335 335 335 336 336 337 337 337 336 335 335 336 339 331 329 332 331 337 339 338 337 335 335 336 338 339 338 338 338 336
340 337 335 335 336 337 338 338 338 338 338 338 337 337 338 333 332 331 334 335 339 340 339 339 340 340 338 338 339 340 338 338 339
341 338 337 336 337 337 338 339 339 338 338 339 339 339 338 333 331 331 330 338 340 341 341 340 340 341 341 341 341 340 341 341 339
343 340 338 337 338 338 339 340 339 339 339 336 335 336 336 330 330 327 326 338 338 338 338 337 339 340 340 341 341 341 341 341 341
344 341 340 339 339 339 338 338 337 337 334 329 328 331 331 326 323 322 326 334 334 335 334 337 337 336 335 336 336 336 336 335 335
337 337 339 341 338 336 336 335 334 332 330 327 326 326 317 317 320 318 328 329 330 330 335 333 331 330 330 331 330 330 330 331 331
336 335 337 338 337 336 330 326 327 328 319 316 322 311 310 313 314 317 325 329 330 330 329 327 326 326 327 326 326 326 326 327 326
330 328 329 328 330 325 323 318 318 314 313 311 307 305 305 305 312 316 320 321 322 329 325 324 323 323 324 323 322 321 322 323 323
323 327 326 329 328 319 316 315 312 310 306 304 302 301 303 302 307 312 320 321 324 323 321 319 318 318 318 318 318 318 318 319 319
323 325 325 319 317 316 315 311 308 303 301 301 300 299 299 298 302 308 319 317 318 318 316 315 314 313 313 313 314 314 315 315 316
325 322 319 316 314 312 308 304 301 299 299 299 298 297 297 297 299 304 307 313 313 312 311 310 310 310 311 312 312 312 313 314 315
321 316 312 310 309 308 304 301 300 300 300 298 298 297 296 297 297 299 300 304 310 307 305 305 306 306 308 310 311 312 311 311 312
318 313 309 306 306 305 302 300 299 298 297 296 296 296 297 296 296 298 297 298 299 303 302 301 303 303 305 307 309 310 310 310 310
316 310 309 307 304 302 300 297 297 295 295 296 294 295 297 297 297 295 296 296 295 295 300 299 302 302 304 305 307 307 307 308 309
311 309 306 304 302 299 298 296 296 294 294 297 297 295 296 296 294 294 296 295 295 294 294 293 294 301 302 303 304 304 306 306 307
308 305 303 302 300 299 297 296 295 293 293 293 294 295 294 294 295 295 294 294 294 293 293 291 291 291 299 299 301 302 303 304 306
304 302 301 301 301 299 296 296 294 293 292 289 290 289 291 292 293 294 292 291 291 292 292 290 290 289 290 293 299 299 301 303 304
304 302 302 301 300 298 297 295 294 292 291 290 288 286 286 286 291 291 291 290 290 289 290 291 291 290 289 292 293 297 299 301 304
304 304 304 301 299 296 295 296 293 292 290 291 292 288 287 284 283 288 289 290 289 288 288 289 289 289 289 293 295 296 298 300 303
302 302 301 300 299 295 293 292 291 290 290 289 288 287 287 286 284 282 284 287 288 288 288 288 288 289 289 288 291 296 298 300 302

GFSFLT1_sfc_thetae_039.txt.gz
Theta_e
336 336 336 336 336 336 337 337 337 337 337 336 335 334 335 338 330 330 335 331 338 339 338 337 337 335 335 336 337 338 337 338 337
337 336 336 336 338 338 339 339 339 338 339 338 337 337 338 332 332 333 334 336 341 340 338 341 341 341 341 338 337 339 340 338 338
339 337 337 337 338 339 340 340 339 339 339 339 338 339 337 332 329 327 330 341 340 340 339 340 341 341 341 342 341 341 342 341 341
341 338 338 338 339 340 340 340 340 340 338 335 333 335 334 327 323 325 327 339 338 337 335 340 339 338 338 339 338 337 336 337 338
343 341 340 339 340 340 339 339 338 338 334 329 330 328 326 320 320 322 328 335 337 334 337 336 333 333 333 333 332 332 333 333 334
338 336 339 341 340 338 338 337 336 334 331 328 326 322 312 316 316 319 332 328 331 334 332 330 329 330 330 328 328 328 329 329 329
336 334 338 340 339 338 334 332 332 328 318 315 317 306 305 312 314 317 328 330 329 331 328 327 326 327 326 325 324 324 325 325 325
331 330 331 329 330 325 325 319 316 312 310 305 302 303 303 309 310 317 322 322 326 327 324 323 322 322 322 321 321 320 320 321 321
327 326 325 324 325 320 315 313 310 306 302 301 299 298 300 305 305 316 325 324 326 323 321 319 318 317 316 316 316 316 316 316 317
323 323 323 323 321 315 313 308 304 300 298 298 298 296 296 300 305 310 320 320 320 318 316 315 313 313 313 313 313 313 314 315 315
320 320 318 315 314 312 308 302 299 298 297 297 296 295 295 296 302 305 309 316 315 313 311 310 310 310 310 312 312 313 313 313 313
320 317 313 310 309 303 300 299 299 297 297 295 296 295 294 295 297 301 301 305 313 307 306 306 306 307 308 309 311 311 311 311 312
317 313 309 306 305 303 300 299 296 295 295 294 294 294 295 294 294 297 297 298 299 303 303 302 304 305 306 308 309 309 309 310 310
315 310 306 305 302 300 299 296 295 293 293 294 293 294 295 296 296 293 294 294 294 294 301 301 303 302 304 306 308 307 307 308 308
311 308 305 303 300 298 296 294 293 292 292 295 295 294 295 295 292 293 295 294 293 292 292 292 292 300 301 302 303 305 306 305 306
311 307 303 301 299 297 296 294 293 291 291 292 292 293 292 293 293 293 292 293 292 292 291 290 289 290 298 298 300 303 304 304 305
309 305 301 300 298 296 296 296 295 291 290 289 290 288 290 291 291 292 292 289 290 291 290 289 289 288 288 291 299 299 300 303 305
306 302 300 298 297 296 295 295 294 293 291 288 289 286 286 285 289 290 289 288 288 288 288 289 289 288 288 291 292 297 298 301 304
307 301 300 300 299 298 296 294 293 293 290 290 291 287 286 284 283 287 287 287 288 286 286 287 288 288 288 292 296 297 298 300 303
305 303 304 301 300 298 296 292 292 292 291 290 288 286 286 285 283 282 283 285 286 286 286 286 286 287 287 287 290 297 298 300 302

GFSFLT1_sfc_thetae_042.txt.gz
Theta_e
335 335 336 336 336 336 337 336 336 336 336 336 335 335 337 335 330 329 331 330 338 338 335 337 337 337 335 334 337 338 336 336 338
336 336 336 336 337 337 338 338 339 339 339 338 337 337 338 329 329 331 334 336 342 340 342 341 341 342 341 339 336 338 340 338 336
337 337 337 338 339 339 340 340 339 339 339 338 337 336 335 328 325 328 328 340 340 340 340 340 341 341 342 341 340 339 340 341 341
337 337 338 338 339 340 340 340 340 340 337 334 333 332 332 321 322 326 327 340 338 336 340 338 336 337 336 335 334 334 335 337 338
341 339 340 339 340 340 340 339 339 338 333 330 330 328 326 318 320 322 328 337 334 338 335 333 332 332 331 331 331 330 331 331 332
337 336 338 341 340 339 338 338 337 333 328 327 324 320 315 314 317 320 332 331 333 333 331 330 330 329 328 327 326 326 327 327 328
335 333 337 341 340 339 337 336 332 326 316 311 312 304 312 313 314 318 331 328 334 330 327 326 326 326 324 323 323 323 323 324 324
331 331 333 331 331 327 327 320 315 310 307 302 300 302 308 308 309 318 326 323 330 325 324 322 321 321 320 319 318 318 318 319 319
327 329 327 325 325 320 315 312 308 302 300 298 296 299 303 303 306 318 326 328 327 323 320 319 317 316 315 315 315 315 315 316 316
328 325 323 323 322 316 312 307 301 298 297 297 295 295 298 301 308 310 321 323 322 319 316 314 314 313 313 313 314 314 314 314 315
325 321 322 321 320 314 309 301 298 297 296 296 295 294 294 301 304 306 312 320 316 314 312 310 309 309 310 311 312 312 313 313 313
321 320 317 315 313 307 300 298 297 296 296 294 294 294 293 298 300 302 302 309 314 308 308 306 307 307 308 310 311 311 311 311 311
319 317 314 310 304 300 299 297 296 294 294 292 292 293 293 292 297 297 298 298 299 305 304 303 304 304 307 308 310 310 308 309 309
317 314 310 305 303 299 299 295 295 292 292 293 292 293 293 293 295 294 295 295 295 294 302 302 301 301 303 305 306 307 307 307 307
315 311 306 303 300 297 296 294 292 292 291 294 294 293 293 292 291 292 294 293 292 292 291 291 292 299 300 300 302 304 305 305 305
314 310 304 301 300 297 295 293 292 291 290 291 292 293 292 292 292 292 291 292 291 291 290 289 288 289 298 297 299 302 303 303 304
315 308 304 300 297 295 295 295 292 291 289 290 290 289 291 292 291 292 291 289 290 290 289 288 288 287 287 291 299 299 300 302 304
315 307 305 299 299 296 295 294 294 291 289 289 290 288 288 286 289 289 288 288 288 287 288 288 288 287 287 291 292 298 298 301 303
310 306 303 303 299 295 295 296 296 292 289 289 290 287 287 285 284 287 288 287 287 286 286 286 286 286 286 290 294 298 299 301 303
310 305 302 302 300 300 299 298 296 293 291 290 287 286 286 285 284 282 284 286 286 286 286 286 285 285 285 286 291 298 299 301 302

GFSFLT1_sfc_thetae_045.txt.gz
Theta_e
335 338 339 338 337 338 338 337 336 335 336 336 335 337 337 333 327 324 326 329 338 338 336 337 338 340 336 334 337 337 337 336 337
335 336 336 336 336 336 337 337 337 338 338 338 338 338 335 327 326 329 331 334 342 342 342 342 342 342 343 339 339 340 340 340 338
336 336 336 337 337 338 338 339 339 339 339 338 336 335 332 326 325 326 329 340 340 339 341 339 339 339 339 338 338 338 340 340 341
337 337 338 338 339 340 340 339 339 339 336 334 330 333 329 320 323 326 328 339 337 340 337 336 335 335 333 333 332 333 335 335 336
339 339 339 339 340 340 340 340 340 337 331 328 331 330 326 319 321 322 331 336 338 336 334 333 332 330 329 329 329 329 329 329 329
334 335 338 340 340 340 339 338 337 331 328 326 327 322 314 315 318 321 333 334 335 333 330 330 329 327 326 325 325 326 326 327 326
335 332 336 341 341 340 338 337 333 321 312 307 310 310 311 312 314 318 332 331 332 329 327 326 326 325 323 322 322 322 322 322 322
331 329 331 332 332 329 328 321 314 310 303 300 300 307 308 307 308 316 327 331 328 325 323 322 321 320 319 318 317 317 317 317 317
327 327 327 327 326 321 316 312 306 302 299 297 297 302 304 303 309 317 328 330 326 323 320 318 317 316 316 316 316 315 316 316 316
326 326 325 323 322 318 312 307 300 297 297 296 295 296 300 303 307 310 323 326 322 319 317 315 314 313 313 314 314 314 314 315 315
327 323 323 321 321 315 310 303 297 295 295 294 293 293 298 302 305 307 313 322 318 315 313 310 310 310 311 312 312 312 313 313 313
326 323 321 319 319 312 302 297 296 295 295 293 293 293 294 300 301 303 304 309 315 311 309 308 308 307 309 310 311 311 310 310 311
322 321 318 315 312 304 298 297 295 294 293 291 292 292 292 295 298 298 300 299 300 306 305 304 304 305 306 307 308 309 308 308 308
321 318 316 310 304 299 298 295 295 293 292 292 291 292 292 291 297 294 295 295 296 295 302 303 302 301 302 304 305 306 307 307 307
318 315 311 307 301 298 296 294 292 292 291 294 293 292 292 291 291 292 294 293 292 291 292 291 291 300 300 300 302 304 305 305 306
318 314 308 305 302 299 296 293 292 290 290 291 291 292 291 291 291 291 291 292 291 291 290 289 288 289 299 300 300 302 303 304 304
317 313 308 305 299 296 294 294 292 290 290 290 290 289 289 290 290 290 291 290 291 290 289 288 288 287 287 291 300 301 302 303 304
319 313 309 304 302 299 296 295 294 291 288 288 291 287 288 286 287 288 287 287 288 287 287 287 288 287 287 289 291 298 300 302 304
318 315 309 306 305 300 301 300 297 294 290 291 290 287 288 287 284 286 286 285 286 285 286 286 286 286 286 291 295 298 299 302 304
315 312 310 307 305 305 303 301 299 296 293 293 290 288 287 286 284 282 283 285 285 285 285 285 284 285 285 286 291 296 298 301 303

GFSFLT1_sfc_thetae_048.txt.gz
Theta_e
338 341 341 341 340 340 339 338 336 336 337 337 338 339 336 332 326 322 325 329 338 340 341 338 342 341 336 337 338 337 338 336 336
337 339 339 338 337 338 337 337 337 337 338 339 339 337 334 325 325 328 329 332 342 343 343 342 342 343 341 341 341 342 342 342 339
336 337 337 337 337 337 337 339 339 339 339 338 336 334 332 326 325 327 329 340 339 341 340 339 338 337 337 337 337 337 338 340 341
337 337 337 337 338 339 339 339 340 339 336 333 332 333 329 322 324 327 329 339 340 338 336 335 334 333 332 331 331 331 332 333 334
339 339 339 339 340 340 340 340 339 334 330 332 333 330 326 319 321 324 329 339 337 334 333 333 330 330 329 328 329 329 329 329 329
333 334 338 340 341 340 340 340 336 329 329 331 327 321 314 316 319 321 336 336 334 332 331 330 328 327 326 325 325 325 325 325 325
332 331 336 340 340 340 339 338 330 319 308 307 316 311 311 313 313 317 332 334 331 328 327 327 326 324 322 321 320 320 321 321 320
330 327 330 331 332 330 329 320 314 311 302 300 305 308 308 306 308 317 328 332 329 326 324 323 321 320 318 318 318 318 318 318 318
327 326 326 327 326 322 317 311 305 301 297 297 301 304 303 303 310 316 330 330 326 324 320 319 318 317 317 317 316 316 316 316 316
326 325 325 324 322 319 313 307 299 297 296 295 296 300 300 305 308 310 326 328 323 320 318 316 314 313 314 315 315 314 315 315 315
327 325 324 322 321 317 311 303 297 295 294 294 293 296 299 303 305 308 314 323 320 317 314 312 311 311 312 313 312 312 313 313 313
327 325 322 321 319 314 305 297 295 294 294 292 292 293 297 301 302 304 306 309 316 313 311 310 309 308 310 310 311 311 309 310 310
325 324 323 320 317 310 300 297 295 294 293 292 291 291 294 298 299 300 301 299 299 307 307 306 306 306 306 307 308 308 308 308 308
325 323 322 317 313 305 299 295 295 293 292 292 290 291 291 292 298 295 296 296 296 295 304 304 303 302 303 304 305 306 306 306 307
323 320 319 315 309 301 297 295 292 292 292 293 292 291 292 291 293 293 295 294 293 292 293 291 291 301 302 301 302 304 305 305 305
321 320 316 312 309 304 298 294 292 291 291 291 291 291 290 289 290 290 291 291 291 290 289 288 288 289 298 299 301 302 304 304 305
320 319 315 311 306 299 297 295 292 291 291 291 290 288 289 289 289 289 290 289 290 289 288 287 287 287 287 291 299 300 301 304 305
321 317 315 310 307 302 299 297 297 293 289 289 292 287 288 286 286 287 287 286 287 286 287 287 287 286 286 289 291 298 299 302 304
320 318 315 311 308 306 302 302 303 304 296 291 290 287 290 290 285 285 286 285 286 285 285 285 285 285 286 291 295 297 299 301 304
320 318 314 309 306 306 304 302 301 302 298 296 293 291 288 286 287 284 285 285 285 284 284 284 284 284 285 285 291 296 298 300 302

GFSFLT1_sfc_thetae_051.txt.gz
Theta_e
340 343 344 343 343 342 341 339 337 337 339 339 340 339 337 334 332 334 337 340 340 343 340 342 343 339 338 340 338 338 338 337 337
340 340 342 340 340 340 338 337 337 338 339 340 339 337 333 335 336 339 340 340 342 343 342 342 343 342 341 341 341 342 342 342 338
339 340 339 338 338 338 338 339 340 340 340 338 336 335 334 334 337 338 337 341 340 340 339 337 337 337 336 336 335 336 338 339 340
337 338 338 338 338 338 340 340 340 339 336 335 335 333 331 335 336 335 336 341 340 338 335 334 334 333 332 332 332 332 332 333 334
339 339 339 338 340 340 340 340 338 334 331 332 334 331 329 332 334 335 337 338 335 334 333 332 331 330 329 329 329 329 329 329 328
336 335 338 340 342 341 340 340 332 331 334 332 328 325 327 329 332 333 338 335 333 332 332 329 328 327 326 325 325 325 325 324 324
335 333 336 340 341 341 340 337 327 321 321 325 322 323 324 327 328 331 335 333 331 329 329 328 326 324 322 322 322 321 321 321 320
335 335 337 339 335 338 338 331 323 316 312 315 319 319 319 320 321 324 333 331 329 326 325 323 322 320 320 320 319 320 320 320 319
336 334 336 337 338 335 332 324 318 311 308 311 315 315 315 316 321 325 330 330 327 324 321 320 319 318 318 318 317 317 318 318 317
337 335 334 335 336 332 326 319 312 308 305 307 311 311 311 316 320 327 327 329 325 321 320 318 315 315 316 316 315 316 316 315 315
334 336 334 333 333 330 325 317 310 307 305 303 305 308 311 313 316 323 325 325 323 319 316 314 313 313 314 314 314 314 313 313 313
333 333 334 333 332 328 321 311 306 304 303 302 302 306 309 311 313 318 319 318 319 317 313 312 311 311 311 311 311 311 310 309 310
332 333 332 333 330 325 317 309 305 304 303 301 301 302 307 309 310 313 313 311 310 313 310 308 309 307 307 308 308 307 308 308 308
331 332 333 331 329 323 315 307 305 303 302 301 300 300 302 306 306 308 309 307 308 307 307 308 306 304 304 304 305 306 306 306 307
331 330 331 330 327 322 312 308 303 303 302 298 298 301 301 301 304 305 304 304 304 303 304 303 302 302 302 302 302 304 305 306 306
330 330 329 328 326 322 315 307 302 300 300 299 299 299 299 299 300 302 302 301 300 300 300 299 298 298 298 299 301 302 305 305 306
329 328 327 325 323 320 313 306 301 300 299 300 299 298 298 298 297 298 299 299 299 298 297 296 296 297 297 297 298 299 301 303 305
328 327 327 323 322 317 312 306 305 300 297 298 302 296 299 296 295 296 297 297 297 297 296 294 294 294 295 296 298 299 300 303 305
326 325 325 322 321 318 312 307 307 305 300 297 294 293 297 296 294 292 293 294 294 295 294 293 293 293 295 294 296 297 298 300 303
325 325 323 320 319 318 312 307 307 308 304 302 293 293 293 291 293 290 290 291 291 292 290 292 292 292 292 294 294 295 297 299 301

GFSFLT1_sfc_thetae_054.txt.gz
Theta_e
345 346 345 345 344 343 342 339 337 339 340 340 340 338 336 335 337 340 341 342 342 342 342 343 339 338 340 339 338 338 339 336 337
342 342 343 342 342 340 338 337 338 339 340 340 338 336 335 336 338 339 339 341 343 343 342 343 343 341 341 340 341 342 343 341 338
340 340 340 340 339 339 338 338 339 340 340 338 336 336 337 335 336 337 338 341 341 340 338 338 337 336 336 335 336 337 338 339 339
340 340 339 338 338 338 340 340 340 339 337 336 336 334 334 336 336 334 337 340 339 338 335 334 333 333 333 332 332 332 333 334 334
340 340 339 338 339 340 341 341 338 335 332 335 334 332 333 335 335 335 337 337 335 336 333 332 331 331 330 329 329 329 328 328 328
336 336 338 338 342 341 341 338 333 334 334 334 329 329 334 334 334 333 337 334 333 334 331 330 328 327 326 325 325 325 324 324 324
334 334 337 340 341 341 341 334 328 327 330 329 326 330 330 330 331 332 337 333 332 330 330 327 325 323 322 322 322 322 322 321 321
334 335 337 338 335 337 338 333 327 324 324 326 326 326 326 327 327 326 333 332 329 328 325 324 321 321 321 320 320 320 320 320 319
333 332 335 336 337 337 337 334 328 323 321 321 322 322 321 321 322 323 332 331 327 325 322 321 319 319 319 318 318 318 318 318 317
335 334 333 334 336 336 334 331 326 322 319 318 319 317 316 317 319 322 329 330 325 322 321 319 317 317 317 316 316 316 316 316 316
336 336 336 334 335 335 334 330 324 320 316 314 314 314 314 315 317 321 327 327 324 321 318 315 315 315 315 315 314 314 313 313 313
336 336 336 337 336 333 333 330 324 319 314 312 311 312 313 314 315 318 321 322 321 320 316 314 312 313 313 312 312 311 309 309 310
335 335 335 337 336 333 331 327 321 317 314 312 310 309 311 312 313 316 317 317 315 315 314 312 311 310 308 310 309 307 308 308 308
335 334 335 336 335 334 330 326 322 317 313 311 310 308 309 310 310 312 314 314 312 312 311 312 311 306 306 306 305 305 306 306 307
335 334 334 335 334 332 330 324 320 318 315 307 306 307 307 307 309 310 311 310 310 310 308 307 305 304 304 303 303 304 305 306 307
336 334 333 333 333 332 331 325 318 313 313 307 306 305 305 305 305 308 308 308 307 307 307 306 304 302 301 300 300 302 304 305 306
336 335 334 333 332 332 330 326 317 316 311 310 310 305 303 303 304 305 305 306 306 304 304 304 302 302 301 301 298 298 300 303 305
337 335 335 334 333 331 331 327 318 314 309 311 313 307 307 303 302 302 302 304 304 303 303 301 301 300 300 298 299 299 299 301 304
333 334 334 334 333 330 330 326 321 320 309 306 305 304 306 302 298 297 300 300 299 301 300 299 298 298 299 297 298 297 297 300 302
330 330 332 331 331 330 328 324 320 320 317 309 304 302 302 299 302 299 294 294 297 298 299 298 298 296 297 297 297 295 296 298 301

GFSFLT1_sfc_thetae_057.txt.gz
Theta_e
348 347 347 345 346 344 342 339 339 340 340 340 339 337 334 336 337 340 342 342 343 344 344 342 339 342 343 341 340 341 339 337 338
344 344 344 343 342 341 339 337 338 339 340 339 338 335 336 336 337 338 340 341 344 344 343 342 341 340 339 340 342 343 342 341 341
341 342 342 342 340 339 338 338 338 340 340 338 336 334 336 334 334 336 337 341 340 339 337 338 338 337 337 336 337 338 339 339 339
341 340 340 339 339 339 339 340 340 339 337 336 336 334 336 335 333 335 337 340 339 337 334 333 333 333 333 332 332 333 333 333 334
341 340 340 338 338 339 341 341 338 336 335 335 335 334 335 333 333 336 335 337 337 335 333 332 331 331 330 329 329 328 328 328 329
335 337 338 340 340 341 341 338 334 335 336 334 332 333 333 332 331 335 337 335 335 333 332 330 328 328 326 326 325 325 324 324 324
332 334 336 339 342 342 342 336 333 333 330 329 328 330 330 329 329 334 337 333 332 331 329 327 324 324 323 323 323 323 323 323 322
334 335 334 335 335 336 338 333 327 326 328 328 327 327 326 326 326 331 336 332 330 329 327 324 322 322 321 322 321 321 321 320 320
330 331 333 335 335 335 336 334 330 326 323 324 324 324 323 321 323 328 334 332 328 326 324 322 321 320 320 320 320 319 319 319 319
331 331 332 334 335 335 334 333 330 326 323 322 322 321 319 317 319 325 330 330 327 324 323 321 319 319 318 318 318 317 317 317 317
334 333 332 331 333 334 333 332 329 325 322 319 319 318 316 315 317 323 328 328 327 323 322 319 318 318 317 316 316 314 313 314 314
335 334 335 334 333 333 332 331 329 324 320 318 316 316 315 315 315 318 326 324 323 324 319 317 316 315 316 314 314 312 310 310 310
336 335 335 336 336 334 332 331 328 323 319 316 315 314 314 313 313 316 319 322 319 319 319 316 314 315 312 312 311 309 308 307 308
335 335 335 335 335 333 333 330 327 322 320 317 315 313 313 312 312 313 316 317 316 315 317 315 315 312 310 311 309 307 307 306 306
337 336 334 334 334 334 331 330 327 324 320 315 312 312 312 312 311 311 312 313 313 313 310 309 308 309 307 307 306 305 305 306 307
339 337 335 334 333 333 331 331 326 322 321 315 311 311 310 308 309 311 310 310 310 310 309 307 306 304 306 306 304 303 304 305 305
339 337 336 335 333 333 332 331 326 321 320 312 311 307 306 306 306 307 307 308 308 307 306 306 305 304 302 302 302 300 301 303 305
340 338 337 336 334 332 332 330 327 319 316 315 314 310 307 303 305 304 305 305 305 305 304 304 303 301 302 301 300 300 301 302 303
335 336 336 335 335 333 332 331 328 322 315 312 313 315 310 305 297 301 302 303 303 304 303 301 300 300 300 301 301 301 299 300 301
335 333 333 332 333 331 332 331 329 323 319 311 311 309 306 306 306 297 296 299 301 302 301 300 299 299 299 299 299 298 298 298 300

GFSFLT1_sfc_thetae_060.txt.gz
Theta_e
349 348 348 348 347 344 341 341 341 341 341 340 339 336 337 338 339 339 341 338 345 346 343 343 344 344 344 344 344 341 339 340 337
347 346 345 345 343 341 339 339 340 341 341 340 337 336 338 334 335 337 336 338 344 344 343 342 341 340 339 341 343 343 342 342 342
344 344 344 342 341 339 339 339 340 341 340 338 336 336 336 332 334 335 335 341 339 338 337 337 337 337 336 336 338 339 339 339 339
343 342 342 341 340 340 340 340 340 340 338 337 335 336 335 332 331 335 333 341 338 336 334 334 334 334 333 333 332 333 333 334 334
342 341 342 340 340 341 341 341 339 337 337 336 335 335 334 326 330 331 333 338 337 335 333 332 331 330 330 329 328 328 328 329 329
335 336 338 340 342 342 342 339 336 336 336 335 334 333 327 325 329 330 338 336 336 333 331 329 328 327 327 326 325 325 325 325 325
331 333 336 340 341 342 342 338 336 333 328 326 329 324 324 322 329 330 337 334 334 332 330 326 325 325 324 324 324 324 324 323 323
330 329 329 330 334 335 334 330 324 322 323 323 322 323 319 318 325 332 336 333 332 330 328 324 323 323 323 323 323 322 321 321 322
325 329 328 328 331 329 331 328 324 321 318 320 319 318 317 314 321 329 333 333 330 328 326 323 323 322 322 321 321 320 320 321 320
324 324 328 329 330 328 329 329 326 319 316 315 316 316 314 310 313 325 329 331 329 326 325 323 322 321 320 320 319 318 318 318 318
325 324 324 326 328 329 328 326 324 320 317 314 314 313 310 308 311 324 325 329 329 325 324 322 321 321 320 319 317 316 315 315 315
328 326 325 325 325 326 326 325 323 318 316 312 311 310 308 307 308 321 322 323 325 326 324 321 320 320 319 318 317 314 312 312 311
329 328 327 328 327 325 324 324 321 317 313 310 308 308 308 307 306 310 320 317 316 323 324 321 319 318 319 317 316 313 311 309 309
330 328 328 329 328 326 326 323 321 316 312 310 308 306 306 306 307 308 311 316 313 311 320 320 319 318 316 316 315 313 310 308 307
330 328 328 328 326 326 325 323 321 317 314 312 309 305 305 305 304 305 309 309 309 308 308 307 309 317 314 315 314 312 310 308 308
331 330 328 327 326 327 326 325 321 316 314 308 304 303 303 303 304 304 304 306 307 305 304 304 302 306 313 312 311 310 309 308 307
332 330 329 328 325 324 326 326 322 317 315 306 302 298 300 301 302 302 304 304 305 304 304 303 301 300 301 303 309 308 308 306 306
335 334 331 328 329 326 324 326 323 319 314 309 306 302 300 297 300 300 301 302 302 303 302 302 301 299 298 303 303 304 304 306 307
332 329 332 332 332 330 328 328 325 321 313 310 311 309 304 298 294 297 299 300 300 301 300 299 298 297 297 300 301 303 304 304 305
329 330 329 331 330 331 330 328 326 326 320 313 308 309 302 299 298 292 294 298 298 298 300 298 295 296 296 296 302 304 303 303 304

GFSFLT1_sfc_thetae_063.txt.gz
Theta_e
349 349 349 349 346 343 342 341 341 341 340 339 337 338 339 339 337 337 340 338 345 344 344 342 344 344 345 344 342 340 340 338 338
347 347 346 346 345 341 341 340 341 341 340 337 337 337 337 332 335 335 335 338 344 344 343 341 340 340 341 343 344 343 343 343 342
346 345 344 343 341 340 340 340 341 341 339 336 335 337 336 331 332 332 332 340 339 338 337 336 336 336 336 338 340 340 340 340 340
345 344 343 342 341 340 340 340 341 340 338 336 335 336 335 328 332 333 332 340 337 336 335 334 334 333 333 333 333 334 335 335 335
343 342 343 342 341 341 341 341 340 338 337 335 337 335 333 327 330 330 334 338 336 334 333 332 331 331 330 329 329 329 330 330 330
336 336 339 342 343 342 342 340 338 338 336 335 334 333 325 324 328 329 339 338 336 333 331 330 329 328 327 326 326 326 326 326 326
334 332 337 341 341 342 342 339 337 333 327 325 330 323 322 326 327 329 338 336 335 333 329 327 326 326 325 325 325 324 324 324 324
328 329 331 331 333 335 336 333 328 323 323 321 321 322 319 323 327 332 336 335 334 332 328 326 325 325 325 324 323 322 323 323 322
326 325 325 326 330 329 328 325 322 319 320 321 319 319 315 320 324 329 333 334 333 331 327 325 324 324 324 323 322 321 322 321 321
326 326 325 325 327 327 329 326 325 319 316 317 316 315 314 312 322 324 329 333 332 329 327 325 325 324 323 323 321 321 320 320 320
324 324 325 325 327 328 327 327 326 319 315 314 312 313 311 307 317 323 325 330 331 328 327 325 324 324 323 323 320 319 319 319 319
324 322 322 325 325 327 325 324 322 318 316 313 311 310 308 305 317 322 321 324 327 328 327 325 324 323 323 323 320 317 316 315 315
325 324 323 324 323 324 322 322 320 317 314 310 309 308 307 305 308 320 320 319 319 325 328 325 323 323 322 322 321 317 315 314 313
328 327 326 326 324 322 322 321 320 315 312 309 307 305 305 305 305 311 318 317 315 315 323 324 323 323 322 321 320 317 314 312 311
330 328 327 326 325 324 322 321 319 317 313 312 309 305 304 304 303 304 315 317 314 312 311 314 314 321 321 319 320 317 314 312 311
328 328 326 325 326 325 324 322 319 316 313 308 304 302 302 302 303 303 304 309 312 310 309 309 306 311 320 318 318 316 315 313 311
333 328 326 325 323 322 323 323 319 317 314 308 301 299 300 301 301 301 303 303 306 308 307 306 302 303 305 307 317 315 314 313 312
331 331 330 326 326 323 322 323 321 319 314 310 306 299 297 297 299 301 301 302 303 305 304 304 303 301 301 306 310 313 311 311 310
330 329 329 327 326 326 328 326 325 322 317 313 313 309 304 298 296 299 301 303 302 302 301 301 301 300 299 303 305 309 307 307 309
329 329 326 325 325 326 327 325 325 325 324 317 314 311 308 304 299 296 298 301 302 302 302 300 299 298 299 300 303 306 306 308 307

GFSFLT1_sfc_thetae_066.txt.gz
Theta_e
346 349 350 347 345 343 341 340 340 340 339 338 339 339 340 339 336 336 340 337 344 345 344 345 344 344 345 341 340 340 339 337 343
346 349 347 346 343 342 340 340 341 340 339 338 337 337 338 334 333 333 336 339 345 344 342 341 340 341 343 343 343 343 342 342 342
346 346 345 343 341 341 340 340 341 340 338 337 337 337 336 333 330 330 331 340 339 338 337 336 336 336 338 340 341 341 341 341 341
346 345 343 342 341 340 340 340 341 339 337 336 336 336 334 329 330 332 331 339 338 336 335 335 334 333 333 334 335 337 337 336 336
345 343 344 343 342 341 340 341 341 339 337 336 335 334 334 328 329 330 332 338 336 335 333 332 332 331 330 331 331 331 332 332 332
337 337 340 342 343 342 341 341 340 339 336 335 334 330 324 326 327 329 340 337 335 333 331 330 330 328 327 327 327 328 328 328 328
335 332 337 341 342 342 342 340 339 334 326 324 330 322 320 325 326 328 340 336 335 332 330 328 327 326 326 326 325 325 325 325 325
330 328 331 331 333 334 337 334 329 323 322 320 320 321 319 324 325 330 338 336 335 332 328 327 326 325 325 325 324 324 324 323 324
324 326 326 327 329 329 329 326 324 320 321 319 318 318 315 322 324 327 334 337 334 333 328 326 325 325 324 323 322 322 323 322 322
325 324 324 324 326 327 327 325 323 319 316 317 318 316 313 319 323 324 329 334 335 332 329 327 326 325 325 324 322 322 322 321 321
325 325 324 323 325 327 327 327 325 323 317 313 315 314 312 311 320 322 324 332 334 332 330 328 327 326 325 324 322 321 321 321 320
324 325 325 325 325 326 325 325 325 323 318 312 311 311 311 306 315 321 321 325 329 331 329 328 327 326 325 325 323 321 320 320 319
323 322 323 325 323 325 323 323 321 321 319 315 311 309 308 306 307 319 320 320 321 327 330 329 327 326 325 325 323 320 318 317 317
325 324 323 322 322 322 324 321 320 317 314 312 310 307 306 305 305 315 318 317 318 317 324 327 326 326 325 325 324 321 318 316 315
328 326 325 324 322 321 319 319 318 317 318 315 310 306 305 304 303 304 318 318 316 314 314 318 319 324 325 324 324 322 318 315 314
328 327 325 325 324 325 323 320 318 318 312 310 307 303 304 302 303 302 305 316 316 313 313 314 312 314 323 324 323 322 320 316 314
330 327 326 325 324 322 322 321 318 317 313 311 306 306 305 302 303 301 302 304 314 313 312 311 308 307 311 313 321 322 320 319 316
330 330 328 325 323 323 321 320 319 321 313 312 314 302 302 298 300 300 302 302 303 309 312 310 308 306 307 311 314 319 319 317 316
328 328 328 327 324 323 323 322 321 319 317 312 316 310 305 301 300 298 301 303 303 304 305 307 306 304 304 306 309 314 315 314 314
327 326 325 324 324 323 323 322 320 321 321 315 313 314 311 307 301 307 300 302 304 306 305 303 303 303 302 302 306 311 311 312 310

GFSFLT1_sfc_thetae_069.txt.gz
Theta_e
348 350 350 347 344 341 339 339 338 338 339 339 340 341 341 336 329 334 336 334 345 346 344 344 344 344 340 339 339 339 336 342 343
349 350 346 344 343 341 339 339 339 339 338 338 338 340 339 333 332 333 336 340 344 342 341 339 340 343 343 343 342 339 342 342 342
348 347 345 343 342 340 339 340 339 339 337 338 337 340 337 332 330 330 332 341 339 337 336 336 336 336 339 341 343 343 341 341 341
346 346 344 342 341 340 339 339 339 338 337 336 336 336 336 327 328 330 330 340 337 335 334 333 333 332 333 333 334 339 339 339 338
345 343 343 343 342 341 339 339 340 339 337 336 336 334 335 327 328 329 330 338 336 334 333 332 331 330 330 331 330 330 334 334 333
337 337 340 342 342 341 340 340 341 339 336 335 334 329 326 325 327 328 339 337 335 333 331 330 329 328 327 327 328 328 328 328 328
335 333 337 341 342 342 342 341 340 335 325 322 329 321 321 324 325 327 340 337 335 332 330 329 328 326 325 325 325 325 324 325 325
329 327 330 331 333 333 336 334 329 324 321 320 319 320 319 323 325 328 339 337 336 333 330 327 326 325 325 325 324 324 323 323 323
325 325 326 326 328 328 329 327 325 322 320 318 317 318 316 321 323 325 334 339 336 334 330 327 326 326 325 324 323 323 322 322 322
323 323 324 324 325 325 326 325 323 320 317 317 318 316 314 317 322 322 328 334 337 334 332 328 327 326 325 324 323 322 322 322 321
322 323 323 322 323 325 326 326 323 322 320 316 314 315 313 311 319 321 323 331 335 335 333 330 328 327 327 325 323 322 322 322 321
324 323 323 323 323 324 324 324 324 322 321 317 313 312 312 310 313 320 321 323 329 334 332 331 329 328 327 327 325 323 322 322 321
323 323 323 324 322 323 322 323 322 322 321 318 315 311 309 309 306 315 320 319 322 328 333 332 330 328 327 327 326 323 321 320 320
326 324 323 323 323 322 323 321 321 318 319 319 318 312 308 308 307 308 316 318 320 319 325 329 329 329 327 327 327 325 321 319 318
327 326 323 321 321 320 319 321 318 320 320 318 317 311 309 305 304 303 313 317 319 317 316 319 322 326 328 327 327 326 323 319 317
327 326 324 324 321 322 320 319 318 316 313 310 309 308 308 307 305 303 302 313 318 317 315 315 316 318 326 327 326 326 325 321 317
329 326 326 325 324 322 321 320 316 315 313 312 307 310 310 303 305 302 304 303 312 315 315 314 314 313 315 318 324 326 325 324 320
329 329 327 325 322 322 321 319 318 321 316 314 317 306 304 301 302 301 301 303 302 310 313 314 314 313 312 315 318 322 323 323 322
326 326 326 326 324 321 321 321 319 317 318 311 313 314 306 305 306 301 301 302 302 301 305 311 312 312 311 311 313 316 319 320 321
314 319 323 323 322 322 321 320 318 318 317 315 313 312 313 307 305 308 307 304 304 306 306 306 308 308 308 307 309 314 316 318 318

GFSFLT1_sfc_thetae_072.txt.gz
Theta_e
348 350 348 345 342 340 338 338 339 339 340 340 342 343 340 333 327 332 332 336 345 346 344 344 345 341 339 339 339 337 339 342 342
349 349 346 344 342 339 338 339 339 339 339 339 340 341 338 333 331 333 334 339 343 342 341 338 340 343 342 342 340 339 342 342 342
350 347 344 343 341 339 339 339 339 338 338 338 340 340 337 331 329 330 332 341 340 338 337 335 334 338 338 340 343 342 341 341 341
348 345 343 342 341 339 338 339 339 338 337 337 336 338 335 326 327 330 329 340 337 335 334 334 333 333 334 334 334 339 339 339 339
346 344 344 343 341 340 339 338 339 339 338 336 334 334 335 325 327 327 329 337 335 334 332 332 331 330 330 331 331 329 333 334 334
337 337 340 342 342 340 339 338 339 339 334 334 334 330 326 324 326 327 334 336 334 332 330 329 329 327 327 327 328 328 327 328 328
335 333 337 341 341 341 340 340 341 335 324 321 328 321 323 324 325 326 335 337 335 332 330 328 327 326 325 325 325 325 325 325 326
329 327 329 329 331 332 334 332 329 324 321 319 318 320 319 318 324 327 334 338 336 334 330 328 326 325 324 324 323 323 323 323 323
324 324 324 325 326 327 327 327 326 323 320 317 316 317 318 317 322 324 331 338 337 336 332 328 327 326 325 324 323 323 322 322 322
322 323 323 323 324 325 324 325 324 322 320 317 316 316 315 313 320 322 326 333 337 336 335 331 328 327 326 325 323 322 322 322 322
321 321 322 322 323 324 324 324 324 322 320 319 316 314 314 313 314 320 322 329 334 336 335 333 331 329 328 326 325 323 323 322 322
322 321 322 322 322 322 322 322 322 321 321 320 319 315 312 313 311 315 319 322 328 333 335 333 332 330 329 328 327 324 323 323 322
324 322 322 323 321 321 320 321 320 320 320 320 321 317 312 310 310 310 317 319 321 327 334 335 333 332 330 329 328 326 324 323 322
326 324 323 323 321 320 320 319 320 318 319 320 320 318 315 312 311 307 310 316 320 320 324 330 331 332 331 330 330 328 325 322 321
327 325 323 321 320 320 319 320 318 320 319 319 319 315 315 312 309 310 307 312 316 317 318 318 323 327 331 330 330 329 328 324 321
326 326 323 321 320 321 319 319 319 317 314 315 315 311 310 310 310 311 306 306 313 316 317 316 317 318 327 330 329 328 328 327 323
329 325 324 323 322 320 319 317 315 315 315 316 310 311 313 306 307 305 304 303 306 313 314 314 313 314 315 319 326 328 327 328 327
328 328 327 325 323 323 321 318 318 317 315 316 318 310 307 306 307 305 302 301 300 305 312 312 313 315 316 316 319 323 326 325 326
318 322 326 326 323 321 321 320 318 318 317 311 313 311 310 309 308 307 304 304 301 302 306 310 313 314 314 314 314 317 321 323 324
311 312 314 323 323 321 320 319 317 316 315 312 312 314 312 308 307 308 307 304 304 303 302 303 306 310 309 309 311 316 319 323 324

GFSFLT1_sfc_thetae_075.txt.gz
Theta_e
350 348 346 343 341 338 339 341 341 341 341 343 344 342 338 334 338 338 339 344 345 344 342 345 343 341 341 340 339 338 343 343 343
350 347 345 343 340 339 339 340 341 340 340 341 343 341 338 341 341 341 344 344 343 342 340 338 342 343 343 342 340 342 343 342 342
350 346 344 343 341 340 340 340 340 339 339 340 342 340 337 338 341 340 341 342 340 338 336 335 336 336 338 340 342 342 341 341 340
348 345 344 343 341 340 340 340 339 339 338 337 338 338 335 337 337 335 338 340 337 336 335 334 333 333 335 335 334 339 339 339 338
346 344 344 343 341 340 339 339 340 339 337 335 334 334 335 337 336 337 338 336 336 334 332 331 330 330 331 332 332 331 332 334 334
342 339 340 342 342 340 339 339 340 337 334 334 332 332 337 337 336 336 334 336 334 332 331 329 329 328 328 328 329 329 329 329 327
341 336 338 341 341 341 339 339 339 335 334 332 330 332 335 335 336 336 334 338 336 333 330 329 327 326 325 325 326 326 325 326 326
340 340 340 341 335 340 340 340 340 335 332 330 329 330 330 331 332 334 334 338 338 336 332 329 327 325 325 324 324 324 323 323 323
336 336 336 336 338 337 338 338 337 335 332 329 327 326 328 329 329 331 330 335 339 337 335 331 328 326 326 325 324 323 322 322 322
333 333 333 333 334 335 335 335 335 334 332 330 326 326 325 326 326 328 327 330 336 338 337 335 331 329 327 326 325 324 324 323 322
330 330 330 331 332 333 333 333 332 332 332 331 330 327 325 325 324 324 328 328 332 336 337 336 334 331 330 329 327 325 324 323 322
330 329 329 330 331 331 331 331 331 331 331 330 331 330 329 325 323 323 324 327 327 331 336 336 335 333 332 331 329 327 324 324 323
333 331 331 331 330 330 329 329 328 328 328 328 329 330 330 328 325 322 321 323 325 327 331 335 335 334 333 332 331 329 326 324 324
335 333 333 333 331 330 329 328 327 327 327 327 327 328 328 329 327 326 323 321 322 325 326 329 332 334 334 332 332 331 329 326 324
336 335 333 332 331 330 329 328 328 327 327 325 324 326 327 327 327 325 324 323 321 322 324 326 327 328 332 332 332 331 330 329 325
335 334 333 331 329 330 329 328 326 326 326 323 324 325 325 322 322 326 324 321 318 319 321 322 323 325 328 331 332 331 330 330 328
335 333 332 331 328 327 327 326 324 323 323 323 320 318 322 321 320 319 317 317 315 315 318 320 320 322 324 325 328 330 330 330 330
332 333 333 332 329 330 329 327 324 324 323 323 321 316 313 312 318 316 314 313 312 313 314 316 318 319 320 321 322 323 327 328 329
317 319 325 329 329 327 328 328 326 324 322 319 319 320 315 312 312 315 314 310 313 313 313 313 315 316 318 318 317 318 322 326 328
313 314 315 320 325 326 327 326 324 324 323 321 319 318 316 315 311 309 314 317 316 314 314 313 312 313 315 316 316 316 319 323 326

GFSFLT1_sfc_thetae_078.txt.gz
Theta_e
349 346 343 341 339 340 342 342 342 342 343 344 343 340 336 335 342 342 344 343 344 343 340 344 342 344 343 341 338 343 343 343 343
349 346 343 341 340 340 341 341 341 341 342 344 342 341 339 342 342 344 343 343 342 340 338 338 339 341 343 343 343 343 343 342 341
348 345 344 341 340 340 341 341 340 340 340 343 341 339 339 340 341 341 340 341 339 337 336 336 336 337 338 339 342 342 341 341 339
348 345 344 342 340 340 340 340 339 339 338 339 340 338 336 337 336 335 337 339 337 336 335 333 333 333 334 336 335 336 338 338 337
346 344 345 342 341 339 340 340 339 338 337 334 333 336 336 338 338 338 337 336 336 334 333 331 330 330 330 331 332 332 332 331 331
344 340 341 342 341 339 338 339 340 336 334 333 331 332 338 339 338 338 334 337 335 333 331 330 329 327 327 328 328 328 329 330 329
344 339 339 340 340 339 338 339 339 335 336 334 331 334 337 337 338 338 334 337 337 334 331 329 328 326 325 325 325 325 325 326 326
341 341 341 342 337 341 339 340 339 335 334 333 332 331 332 334 336 336 333 336 339 338 334 331 329 327 326 325 325 324 323 324 323
335 335 335 337 337 337 338 337 337 336 334 331 330 329 329 331 332 333 332 334 338 340 338 335 331 329 328 327 325 323 323 323 322
335 334 333 333 334 334 334 335 334 333 332 332 331 330 329 329 330 331 329 331 334 338 338 338 335 332 330 329 327 325 324 323 322
336 336 335 334 335 335 336 336 334 333 331 330 331 332 332 331 330 330 329 329 331 334 337 338 337 335 333 331 329 327 325 324 323
337 337 337 336 336 335 335 335 335 334 334 332 332 333 334 334 333 331 330 330 328 331 335 337 337 336 335 333 331 329 327 325 325
340 337 338 339 338 337 336 335 334 334 334 333 334 334 334 334 334 334 332 331 330 330 330 333 336 336 335 335 333 332 330 327 326
341 340 339 340 339 338 337 336 336 335 334 333 333 334 334 334 333 333 334 334 331 331 330 329 331 334 335 335 334 333 332 329 327
341 340 340 340 338 337 337 336 337 335 334 332 331 333 333 334 333 332 332 333 333 331 330 330 329 327 332 334 334 333 332 332 329
339 340 340 340 338 337 337 336 334 334 335 330 330 331 332 331 331 332 331 331 329 327 327 327 327 327 328 331 333 332 332 332 331
342 341 340 340 338 337 336 334 332 331 333 328 326 321 323 326 328 328 327 326 326 323 323 324 324 324 324 324 327 330 331 331 331
334 335 335 335 335 333 334 334 331 329 331 330 327 320 315 321 325 324 324 323 322 320 321 321 322 322 323 322 321 322 324 328 331
322 323 325 330 332 331 332 332 330 329 326 326 326 327 321 316 313 321 323 322 322 323 323 321 321 321 321 319 317 318 319 322 326
317 318 319 321 325 325 327 328 328 326 324 325 324 322 323 319 316 312 318 321 321 322 321 320 320 319 318 318 317 313 315 319 322

GFSFLT1_sfc_thetae_081.txt.gz
Theta_e
346 343 341 340 342 343 342 343 343 344 344 343 341 338 337 339 341 341 343 341 343 340 339 343 343 344 344 342 343 344 343 343 342
346 343 341 340 341 342 342 342 342 342 344 343 342 340 340 341 341 342 340 339 340 338 337 338 339 340 341 343 343 343 343 342 340
346 344 342 340 340 341 341 341 341 340 343 343 341 339 340 338 337 337 337 340 338 337 336 335 334 337 338 338 340 342 341 340 339
347 345 343 341 340 340 340 340 339 339 339 340 339 338 339 336 334 333 336 340 337 336 334 333 332 332 334 335 335 334 335 336 335
346 345 345 342 340 340 340 339 339 338 336 334 333 334 337 336 335 335 336 337 336 334 332 332 331 330 330 331 332 332 332 332 331
341 340 342 343 341 339 338 339 339 336 335 333 332 333 336 335 335 335 337 337 335 334 331 330 329 328 328 328 329 329 329 330 330
342 339 339 341 340 340 339 339 339 336 334 333 332 331 333 334 335 335 336 336 337 335 332 330 328 327 326 326 326 327 326 327 327
340 341 340 341 336 340 339 338 338 335 333 331 330 330 330 330 333 335 336 335 338 339 337 332 330 328 326 326 325 325 324 324 324
334 333 335 335 336 335 336 335 335 335 334 331 329 329 329 329 330 332 334 335 337 339 339 338 334 330 328 327 326 324 323 323 323
333 333 332 331 332 332 332 333 332 332 331 330 329 328 329 329 329 330 330 333 334 337 339 338 338 335 332 330 328 326 325 324 323
334 335 335 333 333 334 335 335 334 333 332 330 330 330 331 331 331 331 331 331 332 334 336 338 338 338 336 333 331 329 327 325 324
336 337 337 336 335 335 335 336 336 335 335 333 333 333 333 333 333 334 333 332 329 332 334 337 337 337 337 337 334 332 330 328 327
340 338 338 340 339 337 336 336 335 334 334 334 334 334 334 334 334 335 334 334 332 330 333 334 335 336 337 337 336 334 333 330 328
341 340 340 340 339 339 338 337 337 335 334 335 335 335 334 334 334 334 335 335 335 334 331 330 331 333 335 336 336 336 335 334 330
342 341 341 340 339 338 338 336 337 337 336 333 333 334 334 335 334 333 333 332 333 335 333 332 329 327 330 332 335 335 335 334 333
340 340 340 340 338 338 337 336 335 335 336 331 331 331 333 332 332 332 331 330 331 331 329 329 329 328 329 331 332 332 334 333 333
340 340 339 340 339 336 336 335 333 332 334 328 327 321 324 325 326 330 328 327 328 326 325 325 325 325 325 324 323 323 327 331 332
334 334 335 335 335 333 333 333 331 328 330 330 326 320 316 321 325 326 326 325 325 324 324 323 323 323 323 323 322 320 320 323 326
323 324 326 328 332 331 331 331 331 330 326 330 327 326 324 318 316 323 323 324 322 324 324 321 321 320 319 319 313 314 315 319 323
318 318 320 321 323 326 325 326 326 329 326 326 325 324 322 321 316 313 316 323 321 322 322 320 318 315 315 313 310 310 313 316 319

GFSFLT1_sfc_thetae_084.txt.gz
Theta_e
342 341 342 344 344 343 343 343 344 345 343 342 340 340 341 342 340 338 339 335 339 338 341 342 342 343 345 345 344 344 343 342 341
342 341 341 343 342 343 343 342 343 344 344 343 342 342 342 338 337 334 333 333 337 337 335 335 338 341 341 342 344 343 342 341 340
344 341 341 341 342 342 342 341 341 343 343 342 341 341 339 333 329 331 332 340 337 336 335 333 333 336 338 338 337 338 339 338 336
345 343 341 341 341 341 341 340 340 339 340 340 339 339 337 330 329 333 332 340 337 335 334 332 332 332 332 334 335 335 335 334 334
346 344 344 342 341 341 340 339 339 338 336 334 336 334 334 329 329 332 333 338 336 334 332 332 330 330 329 330 330 331 331 331 331
340 339 341 343 342 340 340 340 339 338 335 335 333 332 327 328 329 331 339 337 336 334 332 331 330 329 328 328 328 328 328 329 329
339 336 339 342 341 340 340 340 340 336 329 327 331 325 325 326 328 330 339 337 337 336 333 330 329 328 327 326 326 326 326 326 327
337 334 334 334 334 334 337 336 335 330 327 326 324 324 322 322 324 333 337 337 337 339 338 334 331 328 327 326 325 325 324 324 324
330 333 334 333 333 332 332 332 333 330 329 326 322 321 321 321 322 330 334 337 337 338 339 339 336 332 329 328 326 325 324 323 323
325 325 325 325 325 324 324 326 325 325 325 324 323 322 321 321 321 323 330 334 336 336 338 339 339 338 334 331 329 327 325 324 323
327 327 327 325 325 325 326 327 327 326 325 323 322 322 323 323 324 324 325 332 334 335 336 338 338 338 339 336 333 331 329 327 326
328 329 329 328 327 327 328 328 329 328 329 327 327 326 324 325 326 326 325 327 329 333 335 336 337 338 338 338 337 334 332 330 328
332 331 331 333 331 330 329 328 328 327 327 326 327 327 327 327 328 328 328 327 327 328 334 336 336 336 337 338 338 336 335 333 331
335 334 333 333 333 332 331 330 329 328 329 330 330 329 328 329 330 327 328 328 330 328 330 330 331 334 334 336 337 337 337 335 333
336 335 335 334 334 333 333 332 332 331 331 331 330 328 328 328 328 327 328 327 327 329 326 324 324 327 332 333 334 334 335 335 333
336 334 336 335 334 333 333 331 331 328 329 326 325 326 327 327 327 327 325 324 325 322 321 321 320 320 328 330 330 330 330 332 333
338 336 336 335 335 334 333 332 329 329 329 326 323 319 318 322 321 322 321 319 319 319 318 317 317 317 317 319 321 322 324 326 327
328 330 331 332 332 331 331 330 328 326 328 327 323 313 310 314 318 319 319 317 316 316 316 317 317 315 315 312 311 315 317 321 324
319 319 320 320 326 329 328 329 328 327 320 322 325 322 320 312 311 317 316 316 317 316 318 315 313 312 310 308 310 312 314 319 322
314 314 315 316 317 318 319 318 318 319 320 321 321 318 318 318 316 311 314 316 317 314 315 311 308 308 306 304 306 310 312 315 318

GFSFLT1_sfc_thetae_087.txt.gz
Theta_e
342 343 344 343 344 344 344 345 345 343 342 343 343 343 343 342 334 332 335 330 337 337 339 341 341 343 344 345 344 344 343 340 339
341 343 343 343 343 343 343 344 344 344 344 343 343 341 339 336 331 330 330 331 337 336 334 335 339 340 341 342 342 341 341 339 337
341 341 342 343 343 342 342 342 343 343 342 342 341 340 337 330 329 330 331 339 337 335 334 333 333 337 338 338 337 338 337 336 335
342 342 341 342 342 341 341 341 340 340 339 338 338 337 336 327 330 332 331 340 337 334 333 332 332 331 331 333 333 334 334 333 332
345 342 342 342 341 341 340 340 339 337 335 335 335 333 333 326 328 330 332 339 336 334 332 331 330 329 329 330 330 330 330 330 330
339 338 340 342 341 340 340 340 339 337 335 335 334 332 325 324 327 329 339 339 337 335 332 331 330 328 327 328 328 328 329 329 328
338 335 338 342 341 340 340 340 340 335 328 326 331 324 322 322 326 330 340 339 338 337 334 331 329 328 327 327 327 326 326 326 326
334 332 334 333 333 333 336 335 334 329 327 325 324 323 321 320 321 331 339 339 338 338 339 335 332 329 327 327 326 325 324 324 324
332 331 331 330 331 329 330 330 330 330 329 324 322 320 319 319 319 328 335 339 337 337 339 339 338 334 331 329 327 326 324 323 323
327 329 330 330 329 328 328 327 326 325 325 325 323 320 319 318 319 322 330 335 338 337 337 338 339 339 337 334 331 329 327 326 324
323 323 323 321 321 322 322 323 323 323 323 321 320 319 319 320 321 321 324 332 335 337 336 336 337 338 339 338 336 333 331 329 327
325 326 326 325 324 324 324 325 326 326 327 325 325 325 323 322 323 324 323 326 330 334 336 337 337 338 339 338 338 336 334 332 330
327 327 328 329 326 325 325 325 325 325 325 325 326 326 325 325 325 326 326 325 326 329 335 337 338 337 337 337 337 337 336 335 333
332 330 330 331 330 329 328 328 327 326 327 330 330 329 328 326 328 326 326 327 328 327 329 331 332 333 334 335 336 335 335 334 333
333 333 332 332 333 332 332 331 331 330 330 331 329 329 327 327 326 326 327 326 324 326 327 326 324 327 330 332 332 332 331 331 332
335 334 334 335 333 333 333 331 331 329 330 328 326 324 325 326 325 325 324 323 322 320 319 320 317 319 324 325 325 326 327 328 328
336 335 335 335 334 333 333 332 329 329 329 325 324 316 316 318 318 319 320 319 319 318 316 316 315 314 314 314 317 319 322 324 326
326 327 330 331 331 330 330 330 328 325 327 328 323 314 309 312 316 317 317 317 315 315 314 313 314 311 308 308 310 314 317 321 324
317 316 317 318 319 321 323 325 323 325 321 322 321 319 320 314 309 314 315 315 317 314 313 311 312 309 306 307 311 312 314 317 319
313 313 313 314 315 315 315 315 315 315 315 316 318 318 319 315 312 307 311 314 314 312 310 308 307 306 305 304 307 310 313 316 317

GFSFLT1_sfc_thetae_090.txt.gz
Theta_e
344 344 343 344 343 343 344 344 344 343 343 344 345 342 343 336 330 330 332 328 335 336 339 340 342 345 344 344 344 343 341 339 337
344 343 343 343 343 344 345 344 344 344 344 344 342 340 340 331 328 329 328 329 336 335 335 338 339 338 339 341 341 340 338 336 336
343 343 343 343 343 343 344 344 343 343 342 341 339 339 336 330 328 329 329 338 336 335 333 332 334 336 337 337 337 336 335 334 333
342 342 342 342 342 342 341 341 341 340 339 337 336 335 334 326 328 331 330 339 336 334 333 331 331 330 331 332 332 332 332 332 331
343 342 343 342 341 341 340 339 338 336 334 335 335 333 331 325 328 329 331 339 336 334 332 331 330 329 329 329 329 329 330 330 329
337 337 340 342 341 340 339 339 338 337 335 334 334 332 323 322 325 328 338 339 337 335 333 331 330 328 328 328 327 328 328 328 327
337 334 337 341 341 340 340 340 339 334 326 325 329 324 321 320 325 328 339 339 338 337 334 332 330 328 327 327 326 325 326 326 325
333 332 333 332 333 332 335 333 332 327 325 324 324 323 321 318 321 330 338 340 339 338 339 335 332 330 328 327 326 325 324 324 324
330 329 329 329 330 327 328 328 328 328 328 325 322 321 318 318 318 324 334 339 339 338 338 339 339 336 332 330 329 327 325 323 323
330 329 328 328 328 327 327 327 327 327 327 325 322 321 318 317 318 319 329 335 339 338 337 337 338 339 339 336 333 330 328 327 325
326 325 327 327 326 327 323 326 324 321 321 320 319 318 318 318 318 319 320 332 335 338 337 337 337 338 339 339 337 335 332 330 329
322 322 321 322 320 320 321 322 324 324 325 324 325 324 322 321 320 322 321 323 329 334 337 338 338 338 338 337 337 336 335 334 332
324 325 326 326 324 322 322 323 323 323 323 323 325 325 328 327 324 324 324 324 326 329 334 338 339 338 336 336 336 335 335 334 334
327 327 328 329 328 325 325 325 325 324 326 327 330 329 328 327 328 326 326 326 327 326 326 330 331 332 333 333 334 334 332 332 332
331 330 330 330 331 331 331 330 330 330 329 330 330 329 329 327 326 326 326 325 324 324 326 323 323 329 330 331 330 330 329 328 329
333 332 331 333 332 332 331 330 329 330 330 328 325 322 324 323 323 323 323 322 321 321 320 318 320 319 322 323 324 325 326 326 326
335 334 334 335 334 333 332 332 330 329 329 324 322 314 315 316 317 317 318 316 318 318 317 316 315 312 311 313 317 318 321 323 325
329 330 331 331 331 330 330 330 328 325 326 324 320 315 309 311 315 315 315 316 315 315 313 313 310 308 309 311 311 314 316 320 322
319 318 317 318 319 319 319 321 319 319 316 317 319 318 321 315 310 313 313 314 313 311 311 309 308 307 308 310 312 312 314 318 320
314 314 314 313 314 314 315 314 314 314 313 314 314 316 316 313 315 310 310 311 308 306 305 305 305 305 305 306 308 312 314 316 317

GFSFLT1_sfc_thetae_093.txt.gz
Theta_e
344 343 344 345 345 345 344 344 343 344 345 344 343 343 339 334 328 327 330 326 335 337 339 339 341 344 344 343 341 341 338 336 337
343 343 342 342 343 343 344 343 344 344 345 342 341 342 336 328 327 326 326 328 335 335 336 337 337 336 337 337 337 336 336 335 334
343 343 343 343 343 344 344 344 344 344 343 340 339 340 334 329 327 327 328 337 335 334 333 332 333 335 335 335 335 335 334 333 332
342 343 343 343 342 342 343 342 342 341 339 337 336 335 333 326 327 330 329 339 335 334 332 331 330 330 330 330 331 331 331 331 330
343 342 343 342 342 341 340 339 337 336 334 335 335 333 331 324 327 328 329 338 335 333 332 331 330 329 329 329 329 330 329 329 328
336 336 340 342 341 339 339 338 337 336 333 333 333 329 321 320 324 326 333 338 336 334 332 331 329 328 327 328 327 328 327 328 326
334 333 337 341 340 340 339 339 338 333 324 323 327 322 320 319 322 326 335 339 337 336 334 331 330 328 327 326 326 325 325 325 325
331 330 332 331 332 330 333 330 330 325 324 323 322 323 320 318 318 328 335 339 339 338 338 336 333 331 329 327 326 325 324 324 323
329 328 328 328 328 326 326 326 326 326 326 324 323 321 319 317 317 319 331 339 340 339 338 339 339 337 335 332 330 328 326 324 323
328 327 327 326 326 326 325 325 326 325 325 326 324 321 319 316 316 316 324 334 339 339 338 338 338 340 340 338 335 332 330 328 326
329 327 327 325 326 326 325 324 325 324 320 320 319 318 317 317 317 318 318 328 335 338 338 338 338 339 338 337 336 335 335 333 330
328 325 324 325 325 323 321 319 321 321 323 322 323 323 322 321 320 320 320 321 328 333 337 338 339 338 335 335 335 335 335 335 334
322 321 321 323 321 319 319 321 321 322 322 322 324 324 327 328 326 325 323 324 325 328 333 337 338 335 334 335 335 335 333 333 333
324 324 325 327 325 323 322 322 323 323 324 326 329 329 329 329 329 328 325 325 325 325 327 328 331 332 333 334 334 332 330 329 329
327 326 326 328 327 327 327 327 328 329 329 329 330 329 326 327 324 323 324 324 324 323 324 323 325 329 331 330 330 329 328 327 327
330 329 329 330 329 331 331 330 329 329 329 328 322 321 321 320 319 318 318 321 321 321 320 322 320 322 324 324 324 324 324 325 325
333 333 332 334 333 333 332 332 330 329 329 323 321 312 314 315 315 315 315 315 315 316 316 316 312 311 310 314 318 320 321 322 323
331 331 331 331 331 330 330 329 328 325 322 321 319 313 307 309 315 315 314 314 312 311 311 310 309 308 308 311 312 315 317 319 321
324 324 323 321 321 320 320 320 319 318 316 315 317 316 316 311 309 312 312 313 312 310 309 306 306 306 307 309 311 313 316 317 318
317 316 316 316 317 315 316 315 313 313 313 313 312 311 311 314 311 305 307 308 306 305 305 303 304 305 306 306 308 313 316 316 317

GFSFLT1_sfc_thetae_096.txt.gz
Theta_e
344 343 344 344 345 344 344 344 344 346 345 345 343 341 337 332 325 325 329 326 336 339 339 339 340 341 341 339 338 336 336 335 334
343 344 345 345 345 344 344 344 345 345 343 343 344 338 334 326 325 325 325 328 335 336 337 338 337 337 336 336 336 336 335 334 333
342 341 342 343 344 344 344 344 345 344 341 342 342 337 333 328 326 326 327 337 335 334 333 332 333 334 334 333 333 333 333 332 331
341 341 342 342 343 344 344 344 343 342 339 337 337 336 332 324 326 329 328 339 335 334 333 332 332 331 331 331 330 331 331 330 330
342 342 343 342 341 341 341 340 339 337 335 335 334 333 330 323 326 327 327 336 334 334 332 332 331 330 330 329 329 329 330 329 328
336 336 340 342 341 340 339 338 336 334 331 333 332 327 320 319 322 325 332 338 335 334 332 331 330 329 328 328 327 328 328 328 327
333 332 337 340 340 339 338 337 336 329 322 322 326 320 319 318 320 325 333 338 338 336 334 332 330 329 328 327 326 325 326 325 325
329 328 330 329 331 329 331 328 327 323 322 322 321 321 320 318 317 324 333 337 340 338 338 337 335 333 331 329 327 326 325 324 324
327 327 327 326 327 324 324 325 325 325 325 323 323 321 319 316 316 317 326 335 340 340 339 339 340 339 337 334 332 330 327 326 324
327 326 325 325 325 324 323 323 324 323 324 324 324 323 320 318 316 316 322 328 337 339 339 339 339 340 338 337 336 335 333 331 329
328 326 325 324 324 325 324 323 323 324 321 319 319 318 317 317 316 317 318 325 331 337 339 339 340 338 335 335 335 334 335 335 333
330 327 326 326 325 324 323 321 319 320 321 321 322 322 322 321 321 320 320 322 325 330 336 338 339 337 334 335 335 335 334 335 335
329 327 325 324 322 321 318 318 320 321 321 322 323 324 326 328 327 326 325 325 326 328 332 335 337 334 334 334 336 333 331 331 331
328 325 323 323 322 320 320 320 321 321 323 325 327 329 329 329 327 326 325 325 325 324 326 328 331 334 335 335 334 331 329 328 328
325 323 324 326 325 324 323 322 326 327 328 329 329 328 325 324 321 320 322 322 323 323 322 323 325 331 333 331 330 328 325 325 324
325 325 324 326 327 327 327 329 328 329 328 326 320 319 319 317 315 315 316 318 319 318 319 319 319 321 324 325 325 324 324 324 323
329 328 328 329 330 331 330 330 329 329 329 321 320 310 312 313 314 313 314 312 313 314 313 313 311 312 312 314 317 319 321 322 323
331 331 332 330 329 328 328 329 327 321 319 319 319 312 306 308 312 312 312 311 310 310 308 307 308 307 308 310 311 315 317 320 321
327 328 329 328 325 324 323 323 321 319 316 316 316 314 314 312 308 310 309 308 309 308 308 307 307 307 307 309 313 315 317 319 320
321 322 320 320 320 320 320 316 315 314 313 312 312 310 310 310 308 304 305 305 304 304 305 304 305 306 306 307 311 314 317 320 317

GFSFLT1_sfc_thetae_099.txt.gz
Theta_e
345 344 346 347 347 344 345 346 347 346 346 344 342 338 335 333 334 334 335 335 338 339 339 339 339 339 338 338 337 336 335 334 333
344 344 344 344 345 345 345 346 346 343 344 344 340 336 333 333 334 335 335 335 336 336 337 336 336 336 336 336 335 334 334 333 332
342 344 345 344 345 345 345 345 345 342 343 344 339 335 333 332 334 335 336 339 336 335 334 333 333 332 332 332 332 333 332 331 332
342 343 343 343 343 345 345 345 344 340 339 341 338 335 332 334 334 333 336 339 336 335 334 333 333 332 332 331 332 332 331 330 330
340 342 343 343 343 344 343 343 341 337 336 335 334 334 331 334 335 336 337 336 335 334 333 332 332 331 331 330 330 330 330 329 329
339 338 340 342 341 340 339 338 336 333 333 333 332 329 331 331 332 336 332 338 336 334 332 331 330 329 329 329 328 328 328 328 327
339 336 338 341 340 339 338 337 335 330 331 332 329 331 330 330 329 334 332 337 339 336 334 332 331 330 328 328 327 326 326 326 325
337 339 338 339 334 337 337 336 335 330 331 332 332 331 331 329 329 328 332 336 340 340 339 338 336 334 331 330 329 327 326 325 324
335 335 336 336 337 335 336 335 335 334 334 334 334 333 331 329 328 328 324 331 338 341 340 340 340 339 337 336 334 332 330 328 326
335 334 334 336 336 335 334 335 334 334 334 333 332 333 332 330 329 328 323 325 331 339 340 340 340 338 337 336 336 337 335 334 332
335 335 334 334 334 334 334 333 334 333 333 329 329 330 329 329 328 329 329 325 328 333 337 339 340 338 336 334 334 334 335 334 336
335 335 334 334 333 332 332 332 329 328 329 329 332 332 333 332 331 331 331 329 326 328 334 338 339 337 334 335 336 335 333 333 334
337 336 335 335 334 333 331 328 326 328 329 330 331 332 332 331 330 331 333 333 334 332 332 334 336 336 335 336 336 332 330 330 330
337 336 336 333 330 329 327 326 328 329 330 329 330 332 331 333 333 333 333 333 333 333 330 327 330 335 335 336 334 331 328 326 325
336 335 334 330 327 327 326 327 328 329 330 330 333 335 334 332 329 327 327 328 329 331 331 333 331 331 334 332 330 328 326 325 325
332 331 331 330 329 330 330 330 329 330 331 332 330 329 327 325 325 324 326 325 325 327 329 329 327 324 324 325 325 325 324 324 324
332 331 330 329 330 331 332 332 331 333 333 327 325 319 321 322 321 322 321 320 323 322 321 320 319 318 316 317 318 319 321 322 323
333 331 331 331 333 333 333 332 332 329 328 328 325 317 314 318 321 319 319 318 318 317 316 315 314 313 313 314 314 317 318 320 322
329 330 331 331 329 327 326 326 326 327 324 324 323 324 321 316 313 318 316 315 314 314 313 313 311 309 310 312 314 316 319 321 320
322 323 323 321 321 320 321 319 320 320 321 322 320 320 319 321 317 311 314 313 312 312 312 311 310 309 309 311 313 315 318 322 318

GFSFLT1_sfc_thetae_102.txt.gz
Theta_e
346 348 348 348 348 347 347 348 346 346 344 341 337 336 334 337 334 334 335 335 337 340 340 339 339 338 337 337 335 334 333 333 334
345 346 347 347 347 346 346 347 345 345 344 341 337 335 333 334 334 335 335 336 336 336 336 335 335 334 334 333 334 333 333 332 333
344 345 346 347 346 345 346 346 343 344 345 340 337 334 335 335 336 336 335 337 336 335 334 334 333 333 333 333 333 332 331 332 332
345 346 346 346 346 346 346 345 342 342 344 339 337 334 332 337 336 335 337 338 336 335 334 334 333 333 332 332 332 332 331 331 331
343 343 342 343 346 345 345 344 341 338 337 336 336 334 333 337 338 338 337 336 335 334 333 332 332 332 331 331 331 331 330 329 330
338 338 341 344 344 343 343 341 338 335 334 333 332 330 337 335 336 338 334 338 336 334 332 331 331 330 330 329 329 328 328 327 327
339 338 339 342 341 341 339 337 334 330 333 332 329 332 335 334 333 336 333 335 339 337 335 333 332 331 329 329 328 327 326 326 325
338 339 338 337 334 335 335 334 332 331 332 334 334 335 333 333 333 330 330 336 339 341 340 340 337 335 333 332 331 329 327 326 325
335 334 335 334 333 333 333 333 333 331 334 335 334 334 333 334 333 331 326 328 336 340 341 341 340 339 339 338 336 334 332 331 328
333 334 335 335 336 335 334 336 335 335 336 336 335 334 334 334 335 335 325 326 330 335 339 340 340 338 337 336 337 337 336 336 335
337 337 336 336 336 335 334 335 335 335 335 334 334 334 335 335 335 336 335 327 329 332 336 339 340 338 337 336 335 334 334 335 335
338 338 338 336 336 335 336 335 335 333 334 334 335 336 336 336 335 334 335 334 327 328 333 337 340 338 336 337 336 334 332 331 332
339 339 338 338 337 335 334 333 331 331 333 334 335 335 335 334 334 335 335 336 336 332 333 332 334 337 337 337 335 332 330 328 328
341 340 340 338 337 336 334 332 331 331 333 333 334 333 334 335 335 334 334 333 334 334 331 328 329 334 335 336 335 330 327 325 326
341 340 340 339 335 333 333 331 332 334 333 332 331 334 335 335 333 331 330 331 331 333 334 336 332 331 335 334 331 328 326 325 325
340 340 339 338 334 332 332 333 332 333 334 333 330 331 332 329 329 329 331 329 330 332 335 336 332 328 326 327 326 325 324 323 323
338 338 337 337 335 333 333 334 334 334 335 328 328 321 323 326 327 328 327 326 329 328 329 329 328 328 324 321 319 320 321 322 323
337 336 335 335 335 333 335 336 335 331 334 333 326 320 316 321 325 325 325 325 326 325 324 323 322 321 319 319 317 318 319 322 323
332 332 332 331 332 333 334 330 331 331 327 329 328 330 327 317 314 322 323 323 321 323 322 321 318 316 316 313 315 317 320 322 321
330 331 330 324 321 319 319 320 320 320 323 323 325 324 324 323 318 312 316 320 320 320 320 319 318 316 317 316 314 316 319 324 322

GFSFLT1_sfc_thetae_105.txt.gz
Theta_e
348 350 350 347 348 349 348 347 346 344 340 338 337 335 334 338 334 333 335 334 338 339 339 338 336 336 336 335 335 334 334 334 334
348 349 348 347 348 347 347 346 346 344 341 338 336 333 335 333 334 334 335 335 337 337 336 335 334 334 334 334 334 333 333 333 333
347 348 347 347 347 347 346 345 345 345 342 338 336 333 336 334 334 335 334 338 337 336 335 335 334 334 334 334 333 332 332 332 332
345 346 343 348 346 346 346 343 343 345 342 339 336 333 335 335 335 335 335 339 336 336 335 335 334 334 333 333 333 332 331 331 331
343 343 345 347 347 347 346 343 340 343 342 339 337 335 335 335 336 336 335 337 336 334 334 333 333 332 332 331 331 331 330 330 329
339 339 341 344 346 345 345 343 339 338 336 335 334 333 334 332 333 335 339 338 336 334 332 332 331 331 330 330 329 329 328 327 327
338 337 339 343 343 343 342 339 336 333 333 330 329 329 332 330 330 335 336 336 339 338 336 334 332 331 330 329 329 328 327 326 325
339 339 338 339 335 337 337 334 333 332 330 331 331 332 331 330 331 331 335 336 338 340 341 340 338 336 335 333 332 330 329 327 326
335 335 335 334 333 332 332 332 330 329 330 332 332 331 331 331 332 329 331 333 336 338 340 341 341 341 339 339 337 335 334 332 331
334 333 333 333 332 332 332 332 331 329 331 334 333 333 333 332 332 333 328 330 332 334 337 340 341 341 339 339 337 337 337 336 336
332 332 332 334 335 335 333 333 333 332 333 333 332 332 333 333 333 335 331 330 331 332 335 338 340 340 339 337 335 334 335 334 334
335 335 335 335 335 333 333 332 333 332 333 333 333 334 334 334 334 335 335 333 328 331 334 336 338 339 338 337 336 335 332 331 330
337 337 336 336 334 333 333 333 331 330 331 332 333 333 334 334 333 333 333 336 334 331 335 333 333 335 337 338 335 333 329 327 327
338 338 338 336 335 334 333 331 331 328 331 332 333 333 332 332 332 332 332 333 333 333 331 329 329 332 336 337 335 330 327 326 325
340 339 338 337 335 334 333 331 331 331 332 329 330 331 331 332 333 331 330 330 331 332 334 333 328 331 336 336 332 329 326 325 325
340 339 339 341 336 334 332 331 330 331 334 331 329 329 331 330 329 329 328 329 329 331 332 333 330 327 327 329 327 325 324 323 324
339 339 340 338 338 336 333 332 331 333 334 329 327 320 323 326 325 326 326 326 327 327 328 329 328 327 323 320 319 320 321 322 324
340 339 339 336 334 335 334 335 333 331 334 333 326 319 317 321 325 325 324 324 325 325 325 324 324 323 319 318 317 319 321 323 324
338 337 334 331 331 331 325 327 330 333 327 331 328 329 325 319 313 322 323 322 321 323 322 321 320 318 318 314 315 318 320 324 322
333 334 330 329 326 323 322 321 320 321 323 323 322 319 320 321 317 311 315 320 321 321 321 320 319 317 317 317 314 317 320 325 325

GFSFLT1_sfc_thetae_108.txt.gz
Theta_e
350 351 350 348 347 347 345 345 343 339 339 336 334 335 337 337 327 328 335 331 338 338 337 336 336 335 335 335 334 334 335 335 335
351 350 348 347 349 349 347 346 344 341 339 337 334 334 337 330 328 329 329 331 338 337 336 336 336 335 335 335 334 334 334 333 334
350 348 347 347 348 347 347 346 345 342 339 337 334 336 335 331 328 329 330 339 338 338 336 335 335 335 335 334 334 333 333 332 333
348 346 343 348 347 347 345 345 346 343 340 337 335 336 335 329 330 332 330 339 337 337 336 336 335 335 334 334 334 332 332 332 331
344 343 344 347 347 348 346 343 345 345 340 339 338 335 334 327 330 331 332 339 336 336 335 334 334 333 333 332 332 332 331 331 330
338 338 341 344 346 347 345 341 340 339 337 336 335 333 328 326 329 331 339 339 337 335 334 333 332 332 331 331 330 330 330 328 328
338 337 339 342 343 344 344 341 339 334 327 326 330 323 324 323 326 330 340 340 339 338 336 334 333 332 331 330 330 329 328 328 327
335 337 338 337 334 336 337 334 330 327 327 325 322 322 324 323 323 332 337 337 338 340 341 340 338 337 335 334 333 331 330 329 328
334 333 333 332 331 330 330 329 327 326 323 323 325 325 324 324 324 328 333 337 337 338 340 341 341 342 339 339 338 336 334 333 332
332 331 331 329 328 326 327 326 324 322 322 324 327 325 325 325 325 322 328 332 335 335 336 339 340 340 338 338 336 336 335 335 335
327 327 326 326 325 327 327 327 326 324 324 327 327 326 326 325 326 324 324 330 332 335 335 337 338 339 338 337 336 336 335 333 332
326 325 326 327 329 328 327 326 326 325 327 326 326 327 326 328 329 330 328 327 329 333 336 337 337 337 337 338 337 335 332 330 328
329 329 329 329 328 327 327 327 325 324 324 325 326 326 328 328 328 327 327 329 331 330 334 336 333 333 336 339 337 333 329 328 327
332 332 332 332 329 328 328 326 324 323 323 325 329 329 328 327 328 325 326 326 325 325 330 328 329 332 336 338 336 331 328 327 326
333 333 334 332 330 329 328 325 326 324 323 327 326 324 325 327 328 324 324 324 325 326 326 326 325 330 335 337 333 330 327 325 324
335 334 334 334 331 329 328 327 325 323 326 324 325 326 325 326 321 321 321 323 324 324 327 328 325 324 328 332 329 327 325 323 323
335 334 335 335 333 332 330 326 325 325 327 322 321 315 318 319 319 320 320 319 321 322 324 324 326 323 319 319 321 321 322 322 324
335 334 334 332 331 329 328 329 329 324 326 327 321 313 309 314 318 318 318 317 318 318 319 319 319 317 315 316 315 319 320 322 324
333 331 331 330 330 327 325 327 326 327 325 325 326 322 320 313 309 317 318 318 316 317 316 316 314 313 311 313 315 318 322 325 322
331 330 329 327 326 324 323 323 323 323 322 322 320 316 315 317 315 310 312 315 315 316 314 314 312 312 312 311 313 317 320 324 325

GFSFLT1_sfc_thetae_111.txt.gz
Theta_e
353 351 350 348 347 345 343 340 339 338 338 336 338 338 339 333 327 328 333 329 338 337 337 336 337 337 336 336 336 335 335 335 336
352 351 348 348 348 345 344 342 339 338 337 337 337 337 337 327 327 327 328 331 338 338 337 337 337 337 336 335 335 335 334 334 334
350 348 349 349 348 347 345 344 341 339 338 336 336 337 335 329 328 328 329 339 338 338 337 336 336 336 336 335 334 334 334 333 333
349 347 348 349 349 347 346 345 343 340 338 336 336 335 335 326 328 331 330 340 338 338 337 336 336 335 335 335 334 333 333 332 332
345 342 345 347 348 346 345 345 345 341 339 338 338 335 333 325 329 329 331 338 337 336 335 335 335 334 333 333 333 332 331 331 330
338 336 341 344 347 346 343 344 345 342 338 336 335 333 326 324 329 330 339 339 337 335 334 333 333 332 331 331 331 331 330 329 329
336 334 339 343 344 344 344 341 339 335 327 326 330 323 321 320 327 331 340 340 339 337 335 334 333 332 331 331 330 329 329 329 328
335 335 338 338 336 337 338 336 331 327 325 324 321 320 319 320 327 332 339 340 341 341 341 340 338 337 335 334 333 331 330 329 329
334 334 336 334 331 331 331 329 328 326 325 323 321 321 322 321 324 329 334 339 338 339 340 341 342 341 340 339 338 336 334 333 333
331 329 330 329 329 328 327 327 326 324 322 321 322 322 322 322 323 323 330 335 338 338 338 339 340 340 340 338 338 337 336 334 333
331 330 330 328 326 327 326 324 323 322 321 320 323 324 324 323 322 321 323 331 333 337 337 337 338 338 338 338 337 336 334 332 330
329 329 328 328 325 324 324 324 324 324 323 323 325 324 323 324 327 325 325 326 329 334 337 337 337 336 337 338 338 336 332 329 328
326 326 326 326 326 325 324 323 323 323 324 323 325 324 326 326 327 329 327 326 329 330 334 336 333 334 336 339 338 334 329 328 326
327 327 327 327 326 325 325 324 324 322 321 323 324 325 328 328 327 324 324 326 325 325 329 328 329 332 334 339 337 332 328 326 325
330 331 330 329 326 325 325 324 324 323 322 324 325 325 326 327 324 324 325 324 324 324 325 324 325 330 336 338 334 330 327 325 324
332 332 332 331 329 328 326 325 323 323 323 323 322 325 324 323 322 320 321 322 323 324 324 323 321 322 329 333 331 328 325 323 324
333 333 332 332 330 328 327 325 324 324 324 322 322 317 318 320 319 318 319 319 321 321 324 322 320 317 320 320 321 322 323 324 325
335 333 333 332 332 328 329 329 327 323 325 325 322 314 310 314 317 316 317 317 317 317 318 318 317 315 315 316 316 318 320 324 326
330 330 331 329 328 327 326 327 326 325 323 323 325 323 320 311 311 317 317 317 317 316 315 313 313 312 310 313 316 318 321 325 325
329 329 328 328 327 326 324 323 323 324 323 322 318 317 318 317 314 310 312 315 315 315 314 313 311 312 310 309 313 316 320 323 324

GFSFLT1_sfc_thetae_114.txt.gz
Theta_e
353 351 349 347 346 343 342 342 340 339 340 340 341 339 339 334 328 328 332 328 338 338 337 337 337 337 337 336 336 335 335 335 335
352 350 348 347 346 343 340 339 337 337 338 339 340 338 335 326 325 326 327 330 338 338 338 338 337 337 336 336 335 335 335 334 334
350 349 348 347 345 343 342 340 338 337 337 337 338 337 333 328 326 327 329 339 338 338 338 337 337 337 337 335 335 334 334 334 333
350 348 348 347 347 346 344 342 340 339 337 336 336 337 333 325 327 330 329 340 339 338 337 336 336 336 336 335 334 333 333 333 333
346 346 347 349 349 348 347 344 342 339 337 337 336 334 332 324 327 328 330 339 337 337 336 335 335 334 334 333 333 332 332 331 330
339 337 342 346 347 346 345 346 344 341 338 337 335 331 324 325 327 328 339 339 337 336 335 334 333 332 332 331 331 331 330 330 329
336 332 338 344 344 343 344 345 344 337 328 324 328 322 320 321 326 329 340 340 338 337 335 334 333 332 331 331 330 330 329 329 328
334 333 337 339 337 338 338 335 330 326 324 322 320 319 318 320 326 331 340 341 341 340 339 338 337 336 335 334 333 332 330 330 329
333 332 336 335 333 333 331 329 328 326 325 323 323 320 320 319 325 327 336 341 340 341 341 342 342 341 340 339 338 336 334 333 333
332 331 333 332 330 329 328 327 326 324 324 323 321 321 320 320 323 324 329 335 340 340 340 340 340 341 340 340 338 338 337 335 332
331 330 331 328 328 328 327 325 325 323 321 319 319 321 321 320 321 321 324 332 336 339 338 338 338 338 338 338 338 337 335 331 329
331 329 329 329 327 327 325 324 323 321 321 319 320 323 322 323 321 321 322 327 329 334 338 338 337 337 336 338 338 337 334 330 328
331 329 329 329 326 325 324 322 321 321 321 321 322 323 323 323 324 325 324 325 325 329 334 337 334 334 335 337 338 336 331 328 327
329 329 328 327 325 324 323 321 321 320 320 321 322 323 324 324 325 324 324 324 325 324 329 329 330 332 333 337 338 335 329 327 325
328 327 326 326 326 324 323 322 322 321 321 322 323 323 325 326 325 323 323 323 323 324 324 323 324 330 334 338 336 332 328 325 324
327 327 327 327 326 326 324 323 322 321 322 321 320 322 322 324 323 322 320 322 323 323 322 321 320 322 330 333 332 330 326 324 324
328 329 329 329 327 326 325 324 322 323 322 320 320 316 318 318 319 318 320 319 321 323 322 320 318 317 318 320 323 324 323 324 325
330 331 331 330 330 327 326 325 324 321 322 324 321 313 312 314 316 316 318 317 317 318 319 319 316 314 313 314 316 318 320 324 327
331 331 331 330 329 326 326 326 325 325 320 321 324 321 319 311 311 316 317 317 317 316 316 316 314 311 310 313 315 318 320 324 327
328 328 328 327 326 327 325 324 324 324 322 321 319 319 319 317 313 309 313 315 316 317 316 313 312 312 311 310 313 317 319 322 324

GFSFLT1_sfc_thetae_117.txt.gz
Theta_e
350 348 347 346 344 345 342 344 343 339 342 340 344 344 340 334 328 328 332 328 338 338 338 338 337 337 337 336 336 336 335 335 335
351 349 347 346 343 342 342 341 339 338 340 340 341 339 334 325 324 325 327 330 339 339 339 338 338 337 337 336 335 335 335 334 334
351 348 347 345 343 341 339 338 337 339 339 339 338 335 332 327 325 326 328 339 339 338 338 337 338 337 336 336 335 334 335 334 334
349 348 346 344 343 341 340 339 338 338 338 337 337 336 332 324 326 329 329 340 339 338 337 337 336 336 336 335 334 334 333 333 333
347 345 345 346 346 345 344 341 339 339 339 337 336 334 332 323 326 327 328 339 338 337 336 336 335 334 334 333 333 332 332 331 330
341 340 342 345 347 346 345 343 342 340 336 335 334 330 324 324 326 327 336 339 337 336 335 334 334 333 332 332 331 331 330 330 329
340 336 340 345 345 344 346 346 343 336 328 324 328 321 321 323 325 327 338 339 338 336 335 334 333 333 332 331 330 330 329 329 328
334 333 340 340 336 337 339 339 334 328 323 321 319 318 316 318 325 329 338 340 339 339 338 337 336 336 335 334 333 332 330 330 330
331 330 333 337 337 333 331 328 327 325 323 321 321 319 317 318 325 326 334 341 341 341 342 342 342 341 340 340 338 336 334 333 334
331 330 332 334 335 333 329 327 326 324 324 323 322 321 319 318 322 324 329 335 341 341 340 340 340 340 340 340 339 339 337 335 332
332 330 331 331 333 330 330 327 325 324 323 322 320 319 319 318 319 322 323 332 336 340 340 339 339 339 338 338 339 337 336 332 329
331 330 330 330 330 328 327 326 324 322 321 319 318 318 319 319 320 321 321 324 329 335 338 339 338 338 336 337 338 337 335 330 327
331 329 329 330 328 326 324 323 321 321 319 318 318 320 322 321 321 321 320 322 323 327 333 337 336 334 335 336 337 337 332 329 326
331 330 330 329 328 325 325 321 321 319 319 320 321 321 322 322 324 322 322 322 322 323 328 329 329 331 333 334 337 336 330 328 325
331 330 330 329 327 325 323 322 321 320 320 322 321 321 322 323 323 322 324 323 322 323 323 323 323 329 332 337 338 334 329 327 325
332 330 329 328 326 325 324 322 320 321 320 319 318 320 322 322 322 321 322 322 323 322 322 321 320 323 332 336 334 332 330 326 325
331 329 327 326 326 325 324 323 320 321 321 319 318 314 317 317 319 318 320 320 322 323 321 319 318 317 318 322 328 328 325 324 325
330 329 328 326 326 325 325 324 322 320 321 322 319 311 311 313 315 315 317 318 318 319 318 317 316 315 314 315 316 319 320 323 326
328 328 328 328 328 326 325 324 323 323 320 321 322 319 315 311 309 314 314 316 316 317 319 317 316 312 312 313 314 318 320 323 325
329 328 328 328 328 327 325 323 323 323 321 320 320 320 319 315 310 307 310 313 315 317 318 317 314 313 312 312 314 318 319 322 324